Time,TemperatureF,DewpointF,PressureIn,WindDirection,WindDirectionDegrees,WindSpeedMPH,WindSpeedGustMPH,Humidity,HourlyPrecipIn,Conditions,Clouds,dailyrainin,SoftwareType,DateUTC
2013-01-15 00:00:00,22.2,12.2,30.38,SE,135,3.0,5.0,65,0.00,,---,0.00,VWS V14.01,2013-01-15 06:00:00,
2013-01-15 00:30:00,22.1,12.5,30.38,SE,135,3.0,4.0,66,0.00,,---,0.00,VWS V14.01,2013-01-15 06:30:00,
2013-01-15 01:00:00,21.6,12.4,30.36,SE,135,2.0,4.0,67,0.00,,---,0.00,VWS V14.01,2013-01-15 07:00:00,
2013-01-15 01:30:00,21.0,12.4,30.34,SE,135,2.0,4.0,69,0.00,,---,0.00,VWS V14.01,2013-01-15 07:30:00,
2013-01-15 02:00:00,20.3,11.8,30.34,SE,135,0.0,3.0,69,0.00,,---,0.00,VWS V14.01,2013-01-15 08:00:00,
2013-01-15 02:30:00,19.2,11.4,30.34,SE,135,0.0,3.0,71,0.00,,---,0.00,VWS V14.01,2013-01-15 08:30:00,
2013-01-15 03:00:00,19.1,11.3,30.34,SE,135,0.0,2.0,71,0.00,,---,0.00,VWS V14.01,2013-01-15 09:00:00,
2013-01-15 03:30:00,18.6,10.8,30.33,SE,135,0.0,1.0,71,0.00,,---,0.00,VWS V14.01,2013-01-15 09:30:00,
2013-01-15 04:00:00,17.8,10.6,30.32,SE,135,1.0,3.0,73,0.00,,---,0.00,VWS V14.01,2013-01-15 10:00:00,
2013-01-15 04:32:00,17.8,10.6,30.32,SE,135,1.0,3.0,73,0.00,,---,0.00,VWS V14.01,2013-01-15 10:32:00,
2013-01-15 04:33:00,17.8,11.5,30.33,SE,130,0.0,1.0,76,0.00,,---,0.00,VWS V14.01,2013-01-15 10:33:00,
2013-01-15 04:37:00,17.8,11.5,30.33,SE,130,0.0,2.0,76,0.00,,---,0.00,VWS V14.01,2013-01-15 10:37:00,
2013-01-15 04:38:00,17.8,11.5,30.33,SE,130,0.0,2.0,76,0.00,,---,0.00,VWS V14.01,2013-01-15 10:38:00,
2013-01-15 04:42:00,17.8,11.5,30.33,SE,131,0.0,2.0,76,0.00,,---,0.00,VWS V14.01,2013-01-15 10:42:00,
2013-01-15 04:43:00,17.8,11.5,30.33,SE,130,0.0,2.0,76,0.00,,---,0.00,VWS V14.01,2013-01-15 10:43:00,
2013-01-15 04:48:00,17.8,11.5,30.33,SE,130,0.0,0.0,76,0.00,,---,0.00,VWS V14.01,2013-01-15 10:48:00,
2013-01-15 04:49:00,17.8,11.5,30.33,SE,130,0.0,0.0,76,0.00,,---,0.00,VWS V14.01,2013-01-15 10:49:00,
2013-01-15 04:53:00,17.8,11.5,30.33,SE,130,0.0,0.0,76,0.00,,---,0.00,VWS V14.01,2013-01-15 10:53:00,
2013-01-15 04:54:00,17.8,11.5,30.33,SE,130,0.0,0.0,76,0.00,,---,0.00,VWS V14.01,2013-01-15 10:54:00,
2013-01-15 04:58:00,17.8,11.5,30.33,SE,130,0.0,0.0,76,0.00,,---,0.00,VWS V14.01,2013-01-15 10:58:00,
2013-01-15 04:59:00,17.8,11.5,30.33,SE,130,0.0,0.0,76,0.00,,---,0.00,VWS V14.01,2013-01-15 10:59:00,
2013-01-15 05:00:00,17.8,11.5,30.33,SE,130,0.0,0.0,76,0.00,,---,0.00,VWS V14.01,2013-01-15 11:00:00,
2013-01-15 05:03:00,17.8,11.5,30.33,SE,130,0.0,0.0,76,0.00,,---,0.00,VWS V14.01,2013-01-15 11:03:00,
2013-01-15 05:04:00,17.8,11.5,30.33,SE,130,0.0,0.0,76,0.00,,---,0.00,VWS V14.01,2013-01-15 11:04:00,
2013-01-15 05:05:00,17.8,11.5,30.33,SE,130,0.0,0.0,76,0.00,,---,0.00,VWS V14.01,2013-01-15 11:05:00,
2013-01-15 05:08:00,17.7,11.4,30.33,SE,130,2.0,3.0,76,0.00,,---,0.00,VWS V14.01,2013-01-15 11:08:00,
2013-01-15 05:09:00,17.5,11.2,30.33,SE,130,2.0,3.0,76,0.00,,---,0.00,VWS V14.01,2013-01-15 11:09:00,
2013-01-15 05:10:00,17.5,11.2,30.33,SE,130,2.0,3.0,76,0.00,,---,0.00,VWS V14.01,2013-01-15 11:10:00,
2013-01-15 05:13:00,17.2,10.9,30.33,SE,129,2.0,3.0,76,0.00,,---,0.00,VWS V14.01,2013-01-15 11:13:00,
2013-01-15 05:14:00,17.2,10.9,30.33,SE,129,2.0,2.0,76,0.00,,---,0.00,VWS V14.01,2013-01-15 11:14:00,
2013-01-15 05:15:00,17.2,10.9,30.33,SE,129,2.0,2.0,76,0.00,,---,0.00,VWS V14.01,2013-01-15 11:15:00,
2013-01-15 05:18:00,17.0,11.1,30.33,SE,129,2.0,3.0,77,0.00,,---,0.00,VWS V14.01,2013-01-15 11:18:00,
2013-01-15 05:20:00,17.0,11.1,30.33,SE,129,1.0,3.0,77,0.00,,---,0.00,VWS V14.01,2013-01-15 11:20:00,
2013-01-15 05:21:00,17.0,11.1,30.33,SE,129,2.0,4.0,77,0.00,,---,0.00,VWS V14.01,2013-01-15 11:21:00,
2013-01-15 05:24:00,16.9,10.9,30.33,SE,129,1.0,4.0,77,0.00,,---,0.00,VWS V14.01,2013-01-15 11:24:00,
2013-01-15 05:25:00,16.7,10.8,30.33,SE,129,1.0,4.0,77,0.00,,---,0.00,VWS V14.01,2013-01-15 11:25:00,
2013-01-15 05:26:00,16.5,10.6,30.33,SE,129,1.0,4.0,77,0.00,,---,0.00,VWS V14.01,2013-01-15 11:26:00,
2013-01-15 05:29:00,16.4,10.8,30.33,SE,129,3.0,4.0,78,0.00,,---,0.00,VWS V14.01,2013-01-15 11:29:00,
2013-01-15 05:30:00,16.4,10.8,30.33,SE,129,3.0,4.0,78,0.00,,---,0.00,VWS V14.01,2013-01-15 11:30:00,
2013-01-15 05:31:00,16.2,10.6,30.33,SE,129,3.0,4.0,78,0.00,,---,0.00,VWS V14.01,2013-01-15 11:31:00,
2013-01-15 05:34:00,15.9,10.3,30.33,SE,128,3.0,4.0,78,0.00,,---,0.00,VWS V14.01,2013-01-15 11:34:00,
2013-01-15 05:35:00,15.7,10.1,30.33,SE,128,4.0,4.0,78,0.00,,---,0.00,VWS V14.01,2013-01-15 11:35:00,
2013-01-15 05:36:00,15.7,10.1,30.33,SE,128,3.0,4.0,78,0.00,,---,0.00,VWS V14.01,2013-01-15 11:36:00,
2013-01-15 05:39:00,15.4,10.1,30.33,SE,128,2.0,4.0,79,0.00,,---,0.00,VWS V14.01,2013-01-15 11:39:00,
2013-01-15 05:40:00,15.4,10.1,30.33,SE,128,2.0,4.0,79,0.00,,---,0.00,VWS V14.01,2013-01-15 11:40:00,
2013-01-15 05:41:00,15.4,10.1,30.33,SE,128,2.0,4.0,79,0.00,,---,0.00,VWS V14.01,2013-01-15 11:41:00,
2013-01-15 05:42:00,15.4,10.1,30.33,SE,128,2.0,4.0,79,0.00,,---,0.00,VWS V14.01,2013-01-15 11:42:00,
2013-01-15 05:44:00,15.4,10.4,30.34,SE,128,1.0,2.0,80,0.00,,---,0.00,VWS V14.01,2013-01-15 11:44:00,
2013-01-15 05:45:00,15.4,10.4,30.34,SE,128,1.0,2.0,80,0.00,,---,0.00,VWS V14.01,2013-01-15 11:45:00,
2013-01-15 05:46:00,15.4,10.4,30.34,SE,128,0.0,2.0,80,0.00,,---,0.00,VWS V14.01,2013-01-15 11:46:00,
2013-01-15 05:47:00,15.4,10.4,30.34,SE,128,0.0,2.0,80,0.00,,---,0.00,VWS V14.01,2013-01-15 11:47:00,
2013-01-15 05:49:00,15.6,10.8,30.34,SE,128,0.0,2.0,81,0.00,,---,0.00,VWS V14.01,2013-01-15 11:49:00,
2013-01-15 05:50:00,15.6,10.8,30.34,SE,128,0.0,2.0,81,0.00,,---,0.00,VWS V14.01,2013-01-15 11:50:00,
2013-01-15 05:51:00,15.6,10.8,30.34,SE,128,0.0,2.0,81,0.00,,---,0.00,VWS V14.01,2013-01-15 11:51:00,
2013-01-15 05:52:00,15.6,10.8,30.34,SE,128,0.0,2.0,81,0.00,,---,0.00,VWS V14.01,2013-01-15 11:52:00,
2013-01-15 05:55:00,15.6,10.8,30.34,SE,128,0.0,2.0,81,0.00,,---,0.00,VWS V14.01,2013-01-15 11:55:00,
2013-01-15 05:56:00,15.7,10.9,30.34,SE,128,0.0,2.0,81,0.00,,---,0.00,VWS V14.01,2013-01-15 11:56:00,
2013-01-15 05:57:00,15.7,10.9,30.34,SE,128,0.0,2.0,81,0.00,,---,0.00,VWS V14.01,2013-01-15 11:57:00,
2013-01-15 06:00:00,15.7,10.9,30.34,SE,128,0.0,0.0,81,0.00,,---,0.00,VWS V14.01,2013-01-15 12:00:00,
2013-01-15 06:01:00,15.7,11.2,30.34,SE,128,0.0,0.0,82,0.00,,---,0.00,VWS V14.01,2013-01-15 12:01:00,
2013-01-15 06:03:00,15.9,11.4,30.34,SE,128,0.0,0.0,82,0.00,,---,0.00,VWS V14.01,2013-01-15 12:03:00,
2013-01-15 06:05:00,15.9,11.4,30.34,SE,128,0.0,0.0,82,0.00,,---,0.00,VWS V14.01,2013-01-15 12:05:00,
2013-01-15 06:06:00,15.9,11.4,30.34,SE,128,0.0,0.0,82,0.00,,---,0.00,VWS V14.01,2013-01-15 12:06:00,
2013-01-15 06:07:00,15.9,11.4,30.34,SE,128,0.0,0.0,82,0.00,,---,0.00,VWS V14.01,2013-01-15 12:07:00,
2013-01-15 06:08:00,16.1,11.6,30.34,SE,128,0.0,0.0,82,0.00,,---,0.00,VWS V14.01,2013-01-15 12:08:00,
2013-01-15 06:11:00,16.1,11.6,30.34,SE,128,2.0,3.0,82,0.00,,---,0.00,VWS V14.01,2013-01-15 12:11:00,
2013-01-15 06:12:00,16.1,11.6,30.34,SE,128,2.0,3.0,82,0.00,,---,0.00,VWS V14.01,2013-01-15 12:12:00,
2013-01-15 06:13:00,16.1,11.6,30.34,SE,128,1.0,3.0,82,0.00,,---,0.00,VWS V14.01,2013-01-15 12:13:00,
2013-01-15 06:16:00,16.2,11.7,30.34,SE,128,1.0,2.0,82,0.00,,---,0.00,VWS V14.01,2013-01-15 12:16:00,
2013-01-15 06:17:00,16.1,11.6,30.34,SE,128,1.0,2.0,82,0.00,,---,0.00,VWS V14.01,2013-01-15 12:17:00,
2013-01-15 06:18:00,16.2,11.4,30.34,SE,128,1.0,2.0,81,0.00,,---,0.00,VWS V14.01,2013-01-15 12:18:00,
2013-01-15 06:21:00,16.2,11.4,30.34,SE,128,1.0,2.0,81,0.00,,---,0.00,VWS V14.01,2013-01-15 12:21:00,
2013-01-15 06:22:00,16.2,11.4,30.34,SE,128,1.0,2.0,81,0.00,,---,0.00,VWS V14.01,2013-01-15 12:22:00,
2013-01-15 06:23:00,16.2,11.4,30.34,SE,128,1.0,2.0,81,0.00,,---,0.00,VWS V14.01,2013-01-15 12:23:00,
2013-01-15 06:26:00,16.2,11.4,30.34,SE,128,0.0,2.0,81,0.00,,---,0.00,VWS V14.01,2013-01-15 12:26:00,
2013-01-15 06:27:00,16.2,11.4,30.34,SE,128,0.0,2.0,81,0.00,,---,0.00,VWS V14.01,2013-01-15 12:27:00,
2013-01-15 06:28:00,16.2,11.4,30.34,SE,128,0.0,2.0,81,0.00,,---,0.00,VWS V14.01,2013-01-15 12:28:00,
2013-01-15 06:46:00,16.4,11.6,30.34,SE,128,0.0,2.0,81,0.00,,---,0.00,VWS V14.01,2013-01-15 12:46:00,
2013-01-15 06:47:00,16.2,11.1,30.35,SE,128,0.0,0.0,80,0.00,,---,0.00,VWS V14.01,2013-01-15 12:47:00,
2013-01-15 06:51:00,16.2,11.1,30.35,SE,128,0.0,0.0,80,0.00,,---,0.00,VWS V14.01,2013-01-15 12:51:00,
2013-01-15 06:52:00,16.2,11.1,30.35,SE,128,0.0,0.0,80,0.00,,---,0.00,VWS V14.01,2013-01-15 12:52:00,
2013-01-15 06:53:00,16.2,11.1,30.35,SE,128,2.0,2.0,80,0.00,,---,0.00,VWS V14.01,2013-01-15 12:53:00,
2013-01-15 06:56:00,16.1,11.0,30.35,SE,128,1.0,2.0,80,0.00,,---,0.00,VWS V14.01,2013-01-15 12:56:00,
2013-01-15 06:57:00,16.1,11.0,30.35,SE,128,2.0,2.0,80,0.00,,---,0.00,VWS V14.01,2013-01-15 12:57:00,
2013-01-15 06:58:00,15.9,11.1,30.35,SE,128,2.0,2.0,81,0.00,,---,0.00,VWS V14.01,2013-01-15 12:58:00,
2013-01-15 07:01:00,15.7,10.9,30.35,SE,128,0.0,2.0,81,0.00,,---,0.00,VWS V14.01,2013-01-15 13:01:00,
2013-01-15 07:02:00,15.7,10.9,30.35,SE,128,1.0,2.0,81,0.00,,---,0.00,VWS V14.01,2013-01-15 13:02:00,
2013-01-15 07:04:00,15.7,11.2,30.35,SE,128,0.0,2.0,82,0.00,,---,0.00,VWS V14.01,2013-01-15 13:04:00,
2013-01-15 07:07:00,15.6,11.1,30.35,SE,128,0.0,2.0,82,0.00,,---,0.00,VWS V14.01,2013-01-15 13:07:00,
2013-01-15 07:08:00,15.6,11.1,30.35,SE,128,0.0,2.0,82,0.00,,---,0.00,VWS V14.01,2013-01-15 13:08:00,
2013-01-15 07:09:00,15.4,10.9,30.35,SE,128,0.0,2.0,82,0.00,,---,0.00,VWS V14.01,2013-01-15 13:09:00,
2013-01-15 07:12:00,15.4,11.2,30.35,SE,128,0.0,2.0,83,0.00,,---,0.00,VWS V14.01,2013-01-15 13:12:00,
2013-01-15 07:13:00,15.4,11.2,30.35,SE,128,1.0,2.0,83,0.00,,---,0.00,VWS V14.01,2013-01-15 13:13:00,
2013-01-15 07:15:00,15.4,11.2,30.35,SE,128,0.0,0.0,83,0.00,,---,0.00,VWS V14.01,2013-01-15 13:15:00,
2013-01-15 07:17:00,15.4,11.2,30.35,SE,128,0.0,0.0,83,0.00,,---,0.00,VWS V14.01,2013-01-15 13:17:00,
2013-01-15 07:18:00,15.4,11.2,30.35,SE,128,0.0,0.0,83,0.00,,---,0.00,VWS V14.01,2013-01-15 13:18:00,
2013-01-15 07:20:00,15.4,11.2,30.35,SE,128,0.0,0.0,83,0.00,,---,0.00,VWS V14.01,2013-01-15 13:20:00,
2013-01-15 07:22:00,15.4,11.4,30.35,SE,128,0.0,0.0,84,0.00,,---,0.00,VWS V14.01,2013-01-15 13:22:00,
2013-01-15 07:23:00,15.4,11.4,30.35,SE,128,0.0,0.0,84,0.00,,---,0.00,VWS V14.01,2013-01-15 13:23:00,
2013-01-15 07:26:00,15.4,11.4,30.35,SE,128,0.0,0.0,84,0.00,,---,0.00,VWS V14.01,2013-01-15 13:26:00,
2013-01-15 07:27:00,15.4,11.4,30.35,SE,128,0.0,0.0,84,0.00,,---,0.00,VWS V14.01,2013-01-15 13:27:00,
2013-01-15 07:28:00,15.4,11.4,30.35,SE,128,0.0,0.0,84,0.00,,---,0.00,VWS V14.01,2013-01-15 13:28:00,
2013-01-15 07:30:00,15.4,11.2,30.35,SE,128,0.0,2.0,83,0.00,,---,0.00,VWS V14.01,2013-01-15 13:30:00,
2013-01-15 07:31:00,15.4,11.2,30.35,SE,128,0.0,0.0,83,0.00,,---,0.00,VWS V14.01,2013-01-15 13:31:00,
2013-01-15 07:33:00,15.4,11.2,30.35,SE,128,0.0,0.0,83,0.00,,---,0.00,VWS V14.01,2013-01-15 13:33:00,
2013-01-15 07:36:00,15.4,11.2,30.35,SE,128,0.0,0.0,83,0.00,,---,0.00,VWS V14.01,2013-01-15 13:36:00,
2013-01-15 07:38:00,15.4,11.2,30.35,SE,128,0.0,0.0,83,0.00,,---,0.00,VWS V14.01,2013-01-15 13:38:00,
2013-01-15 07:41:00,15.2,11.0,30.35,SE,128,0.0,0.0,83,0.00,,---,0.00,VWS V14.01,2013-01-15 13:41:00,
2013-01-15 07:43:00,15.1,10.9,30.36,SE,128,0.0,0.0,83,0.00,,---,0.00,VWS V14.01,2013-01-15 13:43:00,
2013-01-15 07:44:00,15.1,10.9,30.36,SE,128,0.0,0.0,83,0.00,,---,0.00,VWS V14.01,2013-01-15 13:44:00,
2013-01-15 07:46:00,14.9,10.7,30.36,SE,128,1.0,1.0,83,0.00,,---,0.00,VWS V14.01,2013-01-15 13:46:00,
2013-01-15 07:48:00,14.9,10.7,30.36,SE,128,1.0,2.0,83,0.00,,---,0.00,VWS V14.01,2013-01-15 13:48:00,
2013-01-15 07:49:00,14.9,10.7,30.36,SE,128,2.0,2.0,83,0.00,,---,0.00,VWS V14.01,2013-01-15 13:49:00,
2013-01-15 07:52:00,14.8,10.9,30.36,SE,128,2.0,3.0,84,0.00,,---,0.00,VWS V14.01,2013-01-15 13:52:00,
2013-01-15 07:54:00,14.9,11.2,30.36,SE,128,2.0,3.0,85,0.00,,---,0.00,VWS V14.01,2013-01-15 13:54:00,
2013-01-15 07:57:00,14.9,11.2,30.36,SE,128,1.0,3.0,85,0.00,,---,0.00,VWS V14.01,2013-01-15 13:57:00,
2013-01-15 07:59:00,15.1,11.4,30.35,SE,128,2.0,3.0,85,0.00,,---,0.00,VWS V14.01,2013-01-15 13:59:00,
2013-01-15 08:00:00,15.1,10.9,30.36,SE,128,0.0,0.0,83,0.00,,---,0.00,VWS V14.01,2013-01-15 14:00:00,
2013-01-15 08:02:00,15.1,11.4,30.35,SE,128,2.0,3.0,85,0.00,,---,0.00,VWS V14.01,2013-01-15 14:02:00,
2013-01-15 08:04:00,15.1,11.4,30.35,SE,128,1.0,3.0,85,0.00,,---,0.00,VWS V14.01,2013-01-15 14:04:00,
2013-01-15 08:05:00,15.2,11.5,30.35,SE,128,1.0,3.0,85,0.00,,---,0.00,VWS V14.01,2013-01-15 14:05:00,
2013-01-15 08:07:00,15.2,11.5,30.35,SE,128,1.0,3.0,85,0.00,,---,0.00,VWS V14.01,2013-01-15 14:07:00,
2013-01-15 08:09:00,15.2,11.5,30.35,SE,128,1.0,3.0,85,0.00,,---,0.00,VWS V14.01,2013-01-15 14:09:00,
2013-01-15 08:10:00,15.2,11.5,30.35,SE,128,1.0,3.0,85,0.00,,---,0.00,VWS V14.01,2013-01-15 14:10:00,
2013-01-15 08:13:00,15.2,11.5,30.35,SE,128,2.0,3.0,85,0.00,,---,0.00,VWS V14.01,2013-01-15 14:13:00,
2013-01-15 08:14:00,15.4,11.7,30.35,SE,128,0.0,2.0,85,0.00,,---,0.00,VWS V14.01,2013-01-15 14:14:00,
2013-01-15 08:15:00,15.4,11.7,30.35,SE,128,0.0,2.0,85,0.00,,---,0.00,VWS V14.01,2013-01-15 14:15:00,
2013-01-15 08:16:00,15.4,11.7,30.35,SE,128,0.0,2.0,85,0.00,,---,0.00,VWS V14.01,2013-01-15 14:16:00,
2013-01-15 08:18:00,15.4,11.7,30.35,SE,128,0.0,2.0,85,0.00,,---,0.00,VWS V14.01,2013-01-15 14:18:00,
2013-01-15 08:20:00,15.4,11.7,30.35,SE,128,0.0,2.0,85,0.00,,---,0.00,VWS V14.01,2013-01-15 14:20:00,
2013-01-15 08:21:00,15.4,11.7,30.35,SE,128,0.0,2.0,85,0.00,,---,0.00,VWS V14.01,2013-01-15 14:21:00,
2013-01-15 08:23:00,15.6,11.9,30.35,SE,128,0.0,2.0,85,0.00,,---,0.00,VWS V14.01,2013-01-15 14:23:00,
2013-01-15 08:25:00,15.6,11.9,30.35,SE,128,0.0,2.0,85,0.00,,---,0.00,VWS V14.01,2013-01-15 14:25:00,
2013-01-15 08:26:00,15.6,12.2,30.35,SE,128,0.0,2.0,86,0.00,,---,0.00,VWS V14.01,2013-01-15 14:26:00,
2013-01-15 08:28:00,15.7,12.3,30.34,SE,137,0.0,2.0,86,0.00,,---,0.00,VWS V14.01,2013-01-15 14:28:00,
2013-01-15 08:30:00,15.9,12.5,30.34,SE,137,0.0,2.0,86,0.00,,---,0.00,VWS V14.01,2013-01-15 14:30:00,
2013-01-15 08:31:00,15.9,12.5,30.34,SE,137,0.0,2.0,86,0.00,,---,0.00,VWS V14.01,2013-01-15 14:31:00,
2013-01-15 08:34:00,16.1,12.7,30.34,ENE,77,1.0,2.0,86,0.00,,---,0.00,VWS V14.01,2013-01-15 14:34:00,
2013-01-15 08:35:00,16.1,12.4,30.34,ENE,77,2.0,2.0,85,0.00,,---,0.00,VWS V14.01,2013-01-15 14:35:00,
2013-01-15 08:36:00,16.1,12.4,30.34,ENE,77,1.0,2.0,85,0.00,,---,0.00,VWS V14.01,2013-01-15 14:36:00,
2013-01-15 08:37:00,16.1,12.4,30.34,ENE,77,1.0,2.0,85,0.00,,---,0.00,VWS V14.01,2013-01-15 14:37:00,
2013-01-15 08:39:00,16.1,12.4,30.34,ENE,77,0.0,2.0,85,0.00,,---,0.00,VWS V14.01,2013-01-15 14:39:00,
2013-01-15 08:41:00,16.2,12.8,30.34,ENE,77,0.0,2.0,86,0.00,,---,0.00,VWS V14.01,2013-01-15 14:41:00,
2013-01-15 08:42:00,16.2,12.8,30.34,ENE,77,1.0,2.0,86,0.00,,---,0.00,VWS V14.01,2013-01-15 14:42:00,
2013-01-15 08:45:00,16.4,12.9,30.34,ENE,77,2.0,2.0,86,0.00,,---,0.00,VWS V14.01,2013-01-15 14:45:00,
2013-01-15 08:46:00,16.4,12.9,30.34,ENE,77,1.0,2.0,86,0.00,,---,0.00,VWS V14.01,2013-01-15 14:46:00,
2013-01-15 08:48:00,16.5,13.1,30.34,ENE,77,2.0,2.0,86,0.00,,---,0.00,VWS V14.01,2013-01-15 14:48:00,
2013-01-15 08:51:00,16.7,13.2,30.34,ENE,77,1.0,2.0,86,0.00,,---,0.00,VWS V14.01,2013-01-15 14:51:00,
2013-01-15 08:52:00,16.9,13.4,30.34,ENE,77,1.0,2.0,86,0.00,,---,0.00,VWS V14.01,2013-01-15 14:52:00,
2013-01-15 08:53:00,16.9,13.4,30.34,ENE,77,1.0,2.0,86,0.00,,---,0.00,VWS V14.01,2013-01-15 14:53:00,
2013-01-15 08:56:00,17.2,13.7,30.34,ENE,77,2.0,2.0,86,0.00,,---,0.00,VWS V14.01,2013-01-15 14:56:00,
2013-01-15 08:57:00,17.2,13.7,30.34,ENE,77,1.0,2.0,86,0.00,,---,0.00,VWS V14.01,2013-01-15 14:57:00,
2013-01-15 08:58:00,17.2,13.7,30.34,ENE,77,2.0,2.0,86,0.00,,---,0.00,VWS V14.01,2013-01-15 14:58:00,
2013-01-15 09:00:00,16.4,12.9,30.34,ENE,77,2.0,2.0,86,0.00,,---,0.00,VWS V14.01,2013-01-15 15:00:00,
2013-01-15 09:01:00,17.5,14.0,30.34,ENE,77,1.0,3.0,86,0.00,,---,0.00,VWS V14.01,2013-01-15 15:01:00,
2013-01-15 09:02:00,17.5,14.0,30.34,ENE,77,1.0,3.0,86,0.00,,---,0.00,VWS V14.01,2013-01-15 15:02:00,
2013-01-15 09:03:00,17.7,14.2,30.34,ENE,77,1.0,3.0,86,0.00,,---,0.00,VWS V14.01,2013-01-15 15:03:00,
2013-01-15 09:07:00,18.0,14.5,30.34,ENE,77,2.0,3.0,86,0.00,,---,0.00,VWS V14.01,2013-01-15 15:07:00,
2013-01-15 09:08:00,18.0,14.5,30.34,ENE,77,2.0,3.0,86,0.00,,---,0.00,VWS V14.01,2013-01-15 15:08:00,
2013-01-15 09:09:00,18.0,14.3,30.34,ENE,77,2.0,3.0,85,0.00,,---,0.00,VWS V14.01,2013-01-15 15:09:00,
2013-01-15 09:12:00,18.4,14.6,30.34,ENE,77,1.0,3.0,85,0.00,,---,0.00,VWS V14.01,2013-01-15 15:12:00,
2013-01-15 09:13:00,18.4,14.6,30.34,ENE,77,1.0,3.0,85,0.00,,---,0.00,VWS V14.01,2013-01-15 15:13:00,
2013-01-15 09:15:00,18.6,14.9,30.34,ENE,77,1.0,2.0,85,0.00,,---,0.00,VWS V14.01,2013-01-15 15:15:00,
2013-01-15 09:18:00,18.8,15.1,30.34,ENE,77,0.0,2.0,85,0.00,,---,0.00,VWS V14.01,2013-01-15 15:18:00,
2013-01-15 09:19:00,18.9,15.1,30.34,ENE,77,1.0,2.0,85,0.00,,---,0.00,VWS V14.01,2013-01-15 15:19:00,
2013-01-15 09:20:00,19.1,15.3,30.34,ENE,77,0.0,2.0,85,0.00,,---,0.00,VWS V14.01,2013-01-15 15:20:00,
2013-01-15 09:23:00,19.4,15.6,30.34,ENE,77,0.0,2.0,85,0.00,,---,0.00,VWS V14.01,2013-01-15 15:23:00,
2013-01-15 09:24:00,19.5,15.7,30.34,ENE,77,0.0,2.0,85,0.00,,---,0.00,VWS V14.01,2013-01-15 15:24:00,
2013-01-15 09:25:00,19.7,15.9,30.34,ENE,77,0.0,2.0,85,0.00,,---,0.00,VWS V14.01,2013-01-15 15:25:00,
2013-01-15 09:28:00,20.0,15.9,30.34,ENE,77,0.0,2.0,84,0.00,,---,0.00,VWS V14.01,2013-01-15 15:28:00,
2013-01-15 09:29:00,20.0,15.7,30.34,ENE,77,0.0,2.0,83,0.00,,---,0.00,VWS V14.01,2013-01-15 15:29:00,
2013-01-15 09:30:00,20.2,15.9,30.34,ENE,77,0.0,2.0,83,0.00,,---,0.00,VWS V14.01,2013-01-15 15:30:00,
2013-01-15 09:33:00,20.5,15.9,30.34,ENE,77,0.0,2.0,82,0.00,,---,0.00,VWS V14.01,2013-01-15 15:33:00,
2013-01-15 09:34:00,20.5,15.9,30.34,ENE,77,0.0,2.0,82,0.00,,---,0.00,VWS V14.01,2013-01-15 15:34:00,
2013-01-15 09:36:00,20.8,16.2,30.34,ENE,77,0.0,2.0,82,0.00,,---,0.00,VWS V14.01,2013-01-15 15:36:00,
2013-01-15 09:38:00,21.1,16.2,30.34,ENE,77,0.0,2.0,81,0.00,,---,0.00,VWS V14.01,2013-01-15 15:38:00,
2013-01-15 09:39:00,21.1,15.9,30.34,ENE,77,0.0,2.0,80,0.00,,---,0.00,VWS V14.01,2013-01-15 15:39:00,
2013-01-15 09:41:00,21.4,16.2,30.34,ENE,77,0.0,2.0,80,0.00,,---,0.00,VWS V14.01,2013-01-15 15:41:00,
2013-01-15 09:44:00,21.9,16.4,30.33,ENE,77,0.0,0.0,79,0.00,,---,0.00,VWS V14.01,2013-01-15 15:44:00,
2013-01-15 09:45:00,22.2,16.7,30.33,ENE,77,0.0,0.0,79,0.00,,---,0.00,VWS V14.01,2013-01-15 15:45:00,
2013-01-15 09:46:00,22.4,16.0,30.33,ENE,77,0.0,0.0,76,0.00,,---,0.00,VWS V14.01,2013-01-15 15:46:00,
2013-01-15 09:49:00,22.9,16.2,30.33,ENE,77,1.0,2.0,75,0.00,,---,0.00,VWS V14.01,2013-01-15 15:49:00,
2013-01-15 09:50:00,23.0,16.0,30.33,ENE,77,0.0,2.0,74,0.00,,---,0.00,VWS V14.01,2013-01-15 15:50:00,
2013-01-15 09:51:00,23.0,15.0,30.33,ENE,77,0.0,2.0,71,0.00,,---,0.00,VWS V14.01,2013-01-15 15:51:00,
2013-01-15 09:54:00,23.2,14.9,30.33,ENE,77,2.0,2.0,70,0.00,,---,0.00,VWS V14.01,2013-01-15 15:54:00,
2013-01-15 09:55:00,23.2,14.6,30.33,ENE,77,1.0,2.0,69,0.00,,---,0.00,VWS V14.01,2013-01-15 15:55:00,
2013-01-15 09:56:00,23.3,14.6,30.33,ENE,77,2.0,2.0,69,0.00,,---,0.00,VWS V14.01,2013-01-15 15:56:00,
2013-01-15 09:59:00,23.6,14.6,30.33,ENE,77,0.0,2.0,68,0.00,,---,0.00,VWS V14.01,2013-01-15 15:59:00,
2013-01-15 10:00:00,23.8,14.8,30.33,ENE,77,0.0,2.0,68,0.00,,---,0.00,VWS V14.01,2013-01-15 16:00:00,
2013-01-15 10:01:00,23.8,14.8,30.33,ENE,77,0.0,2.0,68,0.00,,---,0.00,VWS V14.01,2013-01-15 16:01:00,
2013-01-15 10:02:00,23.9,14.6,30.33,ENE,77,0.0,2.0,67,0.00,,---,0.00,VWS V14.01,2013-01-15 16:02:00,
2013-01-15 10:04:00,24.2,14.5,30.33,ENE,77,0.0,2.0,66,0.00,,---,0.00,VWS V14.01,2013-01-15 16:04:00,
2013-01-15 10:05:00,24.2,13.8,30.33,ENE,77,0.0,2.0,64,0.00,,---,0.00,VWS V14.01,2013-01-15 16:05:00,
2013-01-15 10:06:00,24.2,13.8,30.33,ENE,77,0.0,2.0,64,0.00,,---,0.00,VWS V14.01,2013-01-15 16:06:00,
2013-01-15 10:07:00,24.4,14.0,30.33,ENE,77,0.0,2.0,64,0.00,,---,0.00,VWS V14.01,2013-01-15 16:07:00,
2013-01-15 10:09:00,24.7,15.0,30.33,ENE,77,0.0,2.0,66,0.00,,---,0.00,VWS V14.01,2013-01-15 16:09:00,
2013-01-15 10:10:00,25.0,15.3,30.33,ENE,77,0.0,2.0,66,0.00,,---,0.00,VWS V14.01,2013-01-15 16:10:00,
2013-01-15 10:11:00,25.0,15.3,30.33,ENE,77,0.0,2.0,66,0.00,,---,0.00,VWS V14.01,2013-01-15 16:11:00,
2013-01-15 10:12:00,25.1,15.4,30.33,ENE,77,0.0,2.0,66,0.00,,---,0.00,VWS V14.01,2013-01-15 16:12:00,
2013-01-15 10:14:00,25.4,14.9,30.33,ENE,78,3.0,3.0,64,0.00,,---,0.00,VWS V14.01,2013-01-15 16:14:00,
2013-01-15 10:15:00,25.6,15.1,30.33,East,79,1.0,3.0,64,0.00,,---,0.00,VWS V14.01,2013-01-15 16:15:00,
2013-01-15 10:16:00,25.6,15.1,30.33,East,79,2.0,3.0,64,0.00,,---,0.00,VWS V14.01,2013-01-15 16:16:00,
2013-01-15 10:17:00,25.6,14.0,30.33,East,79,2.0,3.0,61,0.00,,---,0.00,VWS V14.01,2013-01-15 16:17:00,
2013-01-15 10:20:00,25.6,14.4,30.33,ESE,113,1.0,5.0,62,0.00,,---,0.00,VWS V14.01,2013-01-15 16:20:00,
2013-01-15 10:21:00,25.6,14.4,30.33,ESE,113,0.0,5.0,62,0.00,,---,0.00,VWS V14.01,2013-01-15 16:21:00,
2013-01-15 10:22:00,25.6,14.4,30.33,ESE,113,0.0,5.0,62,0.00,,---,0.00,VWS V14.01,2013-01-15 16:22:00,
2013-01-15 10:25:00,25.6,14.0,30.33,ESE,113,2.0,5.0,61,0.00,,---,0.00,VWS V14.01,2013-01-15 16:25:00,
2013-01-15 10:26:00,25.6,13.3,30.33,ESE,113,3.0,5.0,59,0.00,,---,0.00,VWS V14.01,2013-01-15 16:26:00,
2013-01-15 10:27:00,25.6,13.3,30.33,ESE,113,2.0,5.0,59,0.00,,---,0.00,VWS V14.01,2013-01-15 16:27:00,
2013-01-15 10:30:00,25.7,14.1,30.33,ESE,121,4.0,6.0,61,0.00,,---,0.00,VWS V14.01,2013-01-15 16:30:00,
2013-01-15 10:31:00,25.7,14.1,30.33,ESE,121,2.0,6.0,61,0.00,,---,0.00,VWS V14.01,2013-01-15 16:31:00,
2013-01-15 10:32:00,25.7,14.1,30.33,ESE,121,3.0,6.0,61,0.00,,---,0.00,VWS V14.01,2013-01-15 16:32:00,
2013-01-15 10:33:00,25.7,14.1,30.33,ESE,121,0.0,6.0,61,0.00,,---,0.00,VWS V14.01,2013-01-15 16:33:00,
2013-01-15 10:36:00,25.8,14.6,30.33,SSE,160,4.0,9.0,62,0.00,,---,0.00,VWS V14.01,2013-01-15 16:36:00,
2013-01-15 10:37:00,25.8,14.2,30.33,SSE,158,3.0,9.0,61,0.00,,---,0.00,VWS V14.01,2013-01-15 16:37:00,
2013-01-15 10:38:00,26.0,14.4,30.33,SSE,158,0.0,9.0,61,0.00,,---,0.00,VWS V14.01,2013-01-15 16:38:00,
2013-01-15 10:41:00,26.1,14.5,30.33,SSE,158,0.0,9.0,61,0.00,,---,0.00,VWS V14.01,2013-01-15 16:41:00,
2013-01-15 10:42:00,26.3,13.9,30.33,SSE,152,5.0,9.0,59,0.00,,---,0.00,VWS V14.01,2013-01-15 16:42:00,
2013-01-15 10:44:00,26.3,13.9,30.33,SSE,150,1.0,9.0,59,0.00,,---,0.00,VWS V14.01,2013-01-15 16:44:00,
2013-01-15 10:46:00,26.4,14.0,30.33,SSE,155,3.0,6.0,59,0.00,,---,0.00,VWS V14.01,2013-01-15 16:46:00,
2013-01-15 10:47:00,26.4,13.6,30.33,SSE,155,1.0,6.0,58,0.00,,---,0.00,VWS V14.01,2013-01-15 16:47:00,
2013-01-15 10:48:00,26.6,13.8,30.33,SSE,149,4.0,6.0,58,0.00,,---,0.00,VWS V14.01,2013-01-15 16:48:00,
2013-01-15 10:49:00,26.6,13.8,30.33,SSE,149,3.0,6.0,58,0.00,,---,0.00,VWS V14.01,2013-01-15 16:49:00,
2013-01-15 10:52:00,26.7,13.1,30.33,SE,146,3.0,6.0,56,0.00,,---,0.00,VWS V14.01,2013-01-15 16:52:00,
2013-01-15 10:53:00,26.9,13.3,30.33,SE,145,0.0,6.0,56,0.00,,---,0.00,VWS V14.01,2013-01-15 16:53:00,
2013-01-15 10:54:00,26.9,13.7,30.33,SE,145,0.0,6.0,57,0.00,,---,0.00,VWS V14.01,2013-01-15 16:54:00,
2013-01-15 10:57:00,26.9,13.7,30.33,SE,144,1.0,6.0,57,0.00,,---,0.00,VWS V14.01,2013-01-15 16:57:00,
2013-01-15 10:59:00,26.9,13.7,30.33,SE,144,0.0,6.0,57,0.00,,---,0.00,VWS V14.01,2013-01-15 16:59:00,
2013-01-15 11:00:00,27.0,14.2,30.33,SSE,150,4.0,6.0,58,0.00,,---,0.00,VWS V14.01,2013-01-15 17:00:00,
2013-01-15 11:02:00,27.0,13.4,30.33,SSE,147,1.0,6.0,56,0.00,,---,0.00,VWS V14.01,2013-01-15 17:02:00,
2013-01-15 11:04:00,27.2,13.6,30.33,SSE,148,3.0,6.0,56,0.00,,---,0.00,VWS V14.01,2013-01-15 17:04:00,
2013-01-15 11:05:00,27.2,13.6,30.33,SSE,147,0.0,6.0,56,0.00,,---,0.00,VWS V14.01,2013-01-15 17:05:00,
2013-01-15 11:07:00,27.3,13.7,30.33,SSE,148,5.0,6.0,56,0.00,,---,0.00,VWS V14.01,2013-01-15 17:07:00,
2013-01-15 11:10:00,27.5,13.5,30.33,SSE,148,0.0,6.0,55,0.00,,---,0.00,VWS V14.01,2013-01-15 17:10:00,
2013-01-15 11:13:00,27.6,13.1,30.33,SSE,149,0.0,6.0,54,0.00,,---,0.00,VWS V14.01,2013-01-15 17:13:00,
2013-01-15 11:15:00,27.9,13.0,30.31,SSE,161,2.0,2.0,53,0.00,,---,0.00,VWS V14.01,2013-01-15 17:15:00,
2013-01-15 11:18:00,28.1,12.8,30.31,SSE,149,3.0,5.0,52,0.00,,---,0.00,VWS V14.01,2013-01-15 17:18:00,
2013-01-15 11:20:00,28.1,13.2,30.31,SSE,158,3.0,5.0,53,0.00,,---,0.00,VWS V14.01,2013-01-15 17:20:00,
2013-01-15 11:21:00,28.1,13.2,30.31,SSE,158,4.0,5.0,53,0.00,,---,0.00,VWS V14.01,2013-01-15 17:21:00,
2013-01-15 11:23:00,28.4,13.5,30.31,SE,142,3.0,5.0,53,0.00,,---,0.00,VWS V14.01,2013-01-15 17:23:00,
2013-01-15 11:24:00,28.4,13.9,30.31,SE,139,0.0,5.0,54,0.00,,---,0.00,VWS V14.01,2013-01-15 17:24:00,
2013-01-15 11:25:00,28.4,13.5,30.31,SE,140,0.0,5.0,53,0.00,,---,0.00,VWS V14.01,2013-01-15 17:25:00,
2013-01-15 11:26:00,28.4,13.5,30.31,South,191,5.0,5.0,53,0.00,,---,0.00,VWS V14.01,2013-01-15 17:26:00,
2013-01-15 11:35:00,28.4,12.6,30.31,SSW,205,5.0,6.0,51,0.00,,---,0.00,VWS V14.01,2013-01-15 17:35:00,
2013-01-15 11:36:00,28.7,12.9,30.31,SSE,165,0.0,0.0,51,0.00,,---,0.00,VWS V14.01,2013-01-15 17:36:00,
2013-01-15 11:37:00,28.7,12.9,30.31,SE,146,4.0,4.0,51,0.00,,---,0.00,VWS V14.01,2013-01-15 17:37:00,
2013-01-15 11:41:00,28.8,13.0,30.31,SE,134,5.0,5.0,51,0.00,,---,0.00,VWS V14.01,2013-01-15 17:41:00,
2013-01-15 11:42:00,28.8,12.5,30.31,SSE,153,6.0,8.0,50,0.00,,---,0.00,VWS V14.01,2013-01-15 17:42:00,
2013-01-15 11:46:00,28.7,12.0,30.30,SE,138,4.0,9.0,49,0.00,,---,0.00,VWS V14.01,2013-01-15 17:46:00,
2013-01-15 11:47:00,28.5,11.8,30.30,SE,138,1.0,9.0,49,0.00,,---,0.00,VWS V14.01,2013-01-15 17:47:00,
2013-01-15 11:51:00,28.7,12.0,30.30,SE,146,2.0,9.0,49,0.00,,---,0.00,VWS V14.01,2013-01-15 17:51:00,
2013-01-15 11:52:00,28.7,12.0,30.30,SE,146,3.0,9.0,49,0.00,,---,0.00,VWS V14.01,2013-01-15 17:52:00,
2013-01-15 11:53:00,29.0,12.2,30.30,SE,146,2.0,9.0,49,0.00,,---,0.00,VWS V14.01,2013-01-15 17:53:00,
2013-01-15 11:56:00,29.4,13.5,30.30,SSW,199,4.0,9.0,51,0.00,,---,0.00,VWS V14.01,2013-01-15 17:56:00,
2013-01-15 11:57:00,29.7,13.8,30.30,SSE,168,1.0,9.0,51,0.00,,---,0.00,VWS V14.01,2013-01-15 17:57:00,
2013-01-15 11:59:00,29.8,12.5,30.28,SSE,158,2.0,9.0,48,0.00,,---,0.00,VWS V14.01,2013-01-15 17:59:00,
2013-01-15 12:00:00,28.7,12.4,30.30,SE,144,2.0,8.0,50,0.00,,---,0.00,VWS V14.01,2013-01-15 18:00:00,
2013-01-15 12:02:00,29.8,11.6,30.28,SE,140,2.0,4.0,46,0.00,,---,0.00,VWS V14.01,2013-01-15 18:02:00,
2013-01-15 12:03:00,29.7,11.5,30.28,SE,140,0.0,4.0,46,0.00,,---,0.00,VWS V14.01,2013-01-15 18:03:00,
2013-01-15 12:04:00,29.8,12.0,30.28,SE,141,2.0,4.0,47,0.00,,---,0.00,VWS V14.01,2013-01-15 18:04:00,
2013-01-15 12:07:00,29.8,11.6,30.28,SE,141,0.0,4.0,46,0.00,,---,0.00,VWS V14.01,2013-01-15 18:07:00,
2013-01-15 12:08:00,29.8,11.6,30.28,SE,141,0.0,4.0,46,0.00,,---,0.00,VWS V14.01,2013-01-15 18:08:00,
2013-01-15 12:09:00,30.0,12.2,30.28,SE,141,2.0,4.0,47,0.00,,---,0.00,VWS V14.01,2013-01-15 18:09:00,
2013-01-15 12:10:00,30.0,11.7,30.28,SE,141,0.0,4.0,46,0.00,,---,0.00,VWS V14.01,2013-01-15 18:10:00,
2013-01-15 12:12:00,30.3,12.5,30.28,SE,138,0.0,4.0,47,0.00,,---,0.00,VWS V14.01,2013-01-15 18:12:00,
2013-01-15 12:13:00,30.4,12.6,30.28,SE,132,2.0,4.0,47,0.00,,---,0.00,VWS V14.01,2013-01-15 18:13:00,
2013-01-15 12:14:00,30.4,12.1,30.28,South,178,3.0,5.0,46,0.00,,---,0.00,VWS V14.01,2013-01-15 18:14:00,
2013-01-15 12:15:00,30.4,12.6,30.28,South,177,4.0,5.0,47,0.00,,---,0.00,VWS V14.01,2013-01-15 18:15:00,
2013-01-15 12:18:00,30.3,12.0,30.28,South,181,3.0,7.0,46,0.00,,---,0.00,VWS V14.01,2013-01-15 18:18:00,
2013-01-15 12:19:00,30.4,13.1,30.28,SSE,167,3.0,7.0,48,0.00,,---,0.00,VWS V14.01,2013-01-15 18:19:00,
2013-01-15 12:20:00,30.4,13.1,30.28,SSE,162,3.0,7.0,48,0.00,,---,0.00,VWS V14.01,2013-01-15 18:20:00,
2013-01-15 12:23:00,30.6,11.3,30.28,South,191,2.0,7.0,44,0.00,,---,0.00,VWS V14.01,2013-01-15 18:23:00,
2013-01-15 12:24:00,30.6,11.3,30.28,South,191,2.0,7.0,44,0.00,,---,0.00,VWS V14.01,2013-01-15 18:24:00,
2013-01-15 12:25:00,30.6,11.3,30.28,South,191,3.0,7.0,44,0.00,,---,0.00,VWS V14.01,2013-01-15 18:25:00,
2013-01-15 12:29:00,30.6,11.8,30.27,SSW,193,2.0,7.0,45,0.00,,---,0.00,VWS V14.01,2013-01-15 18:29:00,
2013-01-15 12:30:00,30.6,12.3,30.27,SSW,193,1.0,7.0,46,0.00,,---,0.00,VWS V14.01,2013-01-15 18:30:00,
2013-01-15 12:35:00,31.0,13.1,30.27,SSE,154,0.0,7.0,47,0.00,,---,0.00,VWS V14.01,2013-01-15 18:35:00,
2013-01-15 12:36:00,31.2,13.3,30.27,SSE,154,0.0,7.0,47,0.00,,---,0.00,VWS V14.01,2013-01-15 18:36:00,
2013-01-15 12:40:00,31.5,11.6,30.27,SSE,149,1.0,7.0,43,0.00,,---,0.00,VWS V14.01,2013-01-15 18:40:00,
2013-01-15 12:41:00,31.5,11.6,30.27,SSE,149,0.0,7.0,43,0.00,,---,0.00,VWS V14.01,2013-01-15 18:41:00,
2013-01-15 12:45:00,31.5,11.1,30.26,SSW,213,2.0,6.0,42,0.00,,---,0.00,VWS V14.01,2013-01-15 18:45:00,
2013-01-15 12:46:00,31.5,11.1,30.26,SW,214,2.0,6.0,42,0.00,,---,0.00,VWS V14.01,2013-01-15 18:46:00,
2013-01-15 12:50:00,31.3,11.4,30.26,South,188,1.0,6.0,43,0.00,,---,0.00,VWS V14.01,2013-01-15 18:50:00,
2013-01-15 12:51:00,31.5,11.6,30.26,South,188,1.0,6.0,43,0.00,,---,0.00,VWS V14.01,2013-01-15 18:51:00,
2013-01-15 12:55:00,31.6,11.2,30.26,South,187,5.0,8.0,42,0.00,,---,0.00,VWS V14.01,2013-01-15 18:55:00,
2013-01-15 12:57:00,31.6,10.1,30.26,South,191,5.0,8.0,40,0.00,,---,0.00,VWS V14.01,2013-01-15 18:57:00,
2013-01-15 13:00:00,31.8,10.8,30.25,South,181,2.0,8.0,41,0.00,,---,0.00,VWS V14.01,2013-01-15 19:00:00,
2013-01-15 13:01:00,31.8,10.8,30.25,South,181,2.0,8.0,41,0.00,,---,0.00,VWS V14.01,2013-01-15 19:01:00,
2013-01-15 13:02:00,31.8,10.8,30.25,South,181,2.0,8.0,41,0.00,,---,0.00,VWS V14.01,2013-01-15 19:02:00,
2013-01-15 13:05:00,32.2,10.6,30.25,SE,143,0.0,8.0,40,0.00,,---,0.00,VWS V14.01,2013-01-15 19:05:00,
2013-01-15 13:06:00,32.4,10.8,30.25,SE,143,0.0,8.0,40,0.00,,---,0.00,VWS V14.01,2013-01-15 19:06:00,
2013-01-15 13:07:00,32.5,10.9,30.25,SSE,154,1.0,8.0,40,0.00,,---,0.00,VWS V14.01,2013-01-15 19:07:00,
2013-01-15 13:09:00,32.5,10.9,30.25,SSE,151,2.0,8.0,40,0.00,,---,0.00,VWS V14.01,2013-01-15 19:09:00,
2013-01-15 13:11:00,32.5,11.4,30.25,SSE,154,4.0,8.0,41,0.00,,---,0.00,VWS V14.01,2013-01-15 19:11:00,
2013-01-15 13:12:00,32.5,10.3,30.25,SSE,154,1.0,8.0,39,0.00,,---,0.00,VWS V14.01,2013-01-15 19:12:00,
2013-01-15 13:14:00,32.7,11.1,30.25,NE,49,5.0,5.0,40,0.00,,---,0.00,VWS V14.01,2013-01-15 19:14:00,
2013-01-15 13:16:00,32.4,10.8,30.25,North,359,3.0,6.0,40,0.00,,---,0.00,VWS V14.01,2013-01-15 19:16:00,
2013-01-15 13:18:00,32.5,11.4,30.25,WNW,293,4.0,6.0,41,0.00,,---,0.00,VWS V14.01,2013-01-15 19:18:00,
2013-01-15 13:19:00,32.4,10.2,30.25,WNW,302,5.0,6.0,39,0.00,,---,0.00,VWS V14.01,2013-01-15 19:19:00,
2013-01-15 13:21:00,31.9,9.8,30.25,WNW,302,0.0,6.0,39,0.00,,---,0.00,VWS V14.01,2013-01-15 19:21:00,
2013-01-15 13:22:00,31.9,10.3,30.25,WNW,302,2.0,6.0,40,0.00,,---,0.00,VWS V14.01,2013-01-15 19:22:00,
2013-01-15 13:23:00,31.8,10.2,30.25,WNW,302,4.0,6.0,40,0.00,,---,0.00,VWS V14.01,2013-01-15 19:23:00,
2013-01-15 13:24:00,31.6,10.1,30.25,WNW,302,0.0,6.0,40,0.00,,---,0.00,VWS V14.01,2013-01-15 19:24:00,
2013-01-15 13:26:00,31.8,10.8,30.25,NNW,328,4.0,6.0,41,0.00,,---,0.00,VWS V14.01,2013-01-15 19:26:00,
2013-01-15 13:27:00,31.9,10.9,30.25,NNW,328,3.0,6.0,41,0.00,,---,0.00,VWS V14.01,2013-01-15 19:27:00,
2013-01-15 13:28:00,31.8,10.2,30.24,NNW,328,2.0,6.0,40,0.00,,---,0.00,VWS V14.01,2013-01-15 19:28:00,
2013-01-15 13:29:00,31.9,10.9,30.24,NNW,328,2.0,6.0,41,0.00,,---,0.00,VWS V14.01,2013-01-15 19:29:00,
2013-01-15 13:30:00,32.7,11.1,30.25,NE,56,5.0,8.0,40,0.00,,---,0.00,VWS V14.01,2013-01-15 19:30:00,
2013-01-15 13:31:00,31.9,11.4,30.24,NNW,327,4.0,6.0,42,0.00,,---,0.00,VWS V14.01,2013-01-15 19:31:00,
2013-01-15 13:33:00,31.9,11.4,30.24,NNW,335,4.0,6.0,42,0.00,,---,0.00,VWS V14.01,2013-01-15 19:33:00,
2013-01-15 13:34:00,31.9,10.3,30.24,NNW,338,4.0,6.0,40,0.00,,---,0.00,VWS V14.01,2013-01-15 19:34:00,
2013-01-15 13:35:00,31.8,10.2,30.24,North,359,7.0,7.0,40,0.00,,---,0.00,VWS V14.01,2013-01-15 19:35:00,
2013-01-15 13:37:00,31.6,11.2,30.24,North,359,3.0,7.0,42,0.00,,---,0.00,VWS V14.01,2013-01-15 19:37:00,
2013-01-15 13:38:00,31.6,11.2,30.24,North,359,2.0,7.0,42,0.00,,---,0.00,VWS V14.01,2013-01-15 19:38:00,
2013-01-15 13:39:00,31.5,11.1,30.24,North,359,2.0,7.0,42,0.00,,---,0.00,VWS V14.01,2013-01-15 19:39:00,
2013-01-15 13:40:00,31.5,10.5,30.24,North,359,1.0,7.0,41,0.00,,---,0.00,VWS V14.01,2013-01-15 19:40:00,
2013-01-15 13:42:00,31.5,10.5,30.24,North,359,2.0,7.0,41,0.00,,---,0.00,VWS V14.01,2013-01-15 19:42:00,
2013-01-15 13:43:00,31.5,10.5,30.24,North,359,1.0,7.0,41,0.00,,---,0.00,VWS V14.01,2013-01-15 19:43:00,
2013-01-15 13:44:00,31.5,10.5,30.24,North,359,0.0,0.0,41,0.00,,---,0.00,VWS V14.01,2013-01-15 19:44:00,
2013-01-15 13:45:00,31.6,10.6,30.24,North,359,1.0,1.0,41,0.00,,---,0.00,VWS V14.01,2013-01-15 19:45:00,
2013-01-15 13:47:00,31.9,10.9,30.24,North,359,0.0,1.0,41,0.00,,---,0.00,VWS V14.01,2013-01-15 19:47:00,
2013-01-15 13:49:00,32.2,12.2,30.24,ESE,108,2.0,3.0,43,0.00,,---,0.00,VWS V14.01,2013-01-15 19:49:00,
2013-01-15 13:50:00,32.5,12.5,30.24,ESE,123,0.0,3.0,43,0.00,,---,0.00,VWS V14.01,2013-01-15 19:50:00,
2013-01-15 13:52:00,32.8,12.8,30.24,NNE,25,2.0,5.0,43,0.00,,---,0.00,VWS V14.01,2013-01-15 19:52:00,
2013-01-15 13:54:00,32.8,11.7,30.24,NNE,25,0.0,5.0,41,0.00,,---,0.00,VWS V14.01,2013-01-15 19:54:00,
2013-01-15 13:55:00,32.8,11.1,30.24,NNE,25,1.0,5.0,40,0.00,,---,0.00,VWS V14.01,2013-01-15 19:55:00,
2013-01-15 13:58:00,33.1,13.1,30.23,NNE,29,2.0,5.0,43,0.00,,---,0.00,VWS V14.01,2013-01-15 19:58:00,
2013-01-15 13:59:00,33.1,11.4,30.23,NNE,29,3.0,5.0,40,0.00,,---,0.00,VWS V14.01,2013-01-15 19:59:00,
2013-01-15 14:00:00,32.9,11.2,30.23,NNE,29,3.0,5.0,40,0.00,,---,0.00,VWS V14.01,2013-01-15 20:00:00,
2013-01-15 14:03:00,32.7,11.1,30.23,WNW,288,5.0,5.0,40,0.00,,---,0.00,VWS V14.01,2013-01-15 20:03:00,
2013-01-15 14:05:00,32.5,10.3,30.23,WNW,285,3.0,5.0,39,0.00,,---,0.00,VWS V14.01,2013-01-15 20:05:00,
2013-01-15 14:08:00,32.1,10.5,30.23,WNW,285,2.0,5.0,40,0.00,,---,0.00,VWS V14.01,2013-01-15 20:08:00,
2013-01-15 14:10:00,32.2,10.6,30.23,NW,304,1.0,5.0,40,0.00,,---,0.00,VWS V14.01,2013-01-15 20:10:00,
2013-01-15 14:11:00,32.4,11.9,30.23,NW,305,1.0,5.0,42,0.00,,---,0.00,VWS V14.01,2013-01-15 20:11:00,
2013-01-15 14:13:00,32.7,12.2,30.23,North,5,2.0,5.0,42,0.00,,---,0.00,VWS V14.01,2013-01-15 20:13:00,
2013-01-15 14:15:00,32.8,11.7,30.23,North,5,0.0,2.0,41,0.00,,---,0.00,VWS V14.01,2013-01-15 20:15:00,
2013-01-15 14:16:00,32.9,11.8,30.23,North,3,3.0,3.0,41,0.00,,---,0.00,VWS V14.01,2013-01-15 20:16:00,
2013-01-15 14:17:00,33.1,10.3,30.23,NW,306,5.0,5.0,38,0.00,,---,0.00,VWS V14.01,2013-01-15 20:17:00,
2013-01-15 14:18:00,33.1,9.7,30.23,WNW,300,5.0,5.0,37,0.00,,---,0.00,VWS V14.01,2013-01-15 20:18:00,
2013-01-15 14:20:00,32.8,10.0,30.23,SW,230,6.0,6.0,38,0.00,,---,0.00,VWS V14.01,2013-01-15 20:20:00,
2013-01-15 14:21:00,32.9,10.1,30.23,WSW,238,5.0,6.0,38,0.00,,---,0.00,VWS V14.01,2013-01-15 20:21:00,
2013-01-15 14:22:00,33.2,10.9,30.23,SW,236,5.0,7.0,39,0.00,,---,0.00,VWS V14.01,2013-01-15 20:22:00,
2013-01-15 14:24:00,33.5,10.6,30.23,SW,232,4.0,7.0,38,0.00,,---,0.00,VWS V14.01,2013-01-15 20:24:00,
2013-01-15 14:30:00,32.7,12.2,30.23,North,5,2.0,5.0,42,0.00,,---,0.00,VWS V14.01,2013-01-15 20:30:00,
2013-01-15 15:00:00,33.5,10.0,30.23,SW,225,3.0,7.0,37,0.00,,---,0.00,VWS V14.01,2013-01-15 21:00:00,
2013-01-15 15:30:00,34.1,11.8,30.22,West,270,3.0,6.0,39,0.00,,---,0.00,VWS V14.01,2013-01-15 21:30:00,
2013-01-15 16:00:00,34.1,11.8,30.21,WSW,248,3.0,6.0,39,0.00,,---,0.00,VWS V14.01,2013-01-15 22:00:00,
2013-01-15 16:30:00,34.6,11.6,30.21,WSW,248,2.0,5.0,38,0.00,,---,0.00,VWS V14.01,2013-01-15 22:30:00,
2013-01-15 16:52:00,33.5,10.6,30.23,SW,232,4.0,7.0,38,0.00,,---,0.00,VWS V14.01,2013-01-15 22:52:00,
2013-01-15 16:53:00,33.2,10.9,30.21,SSW,193,1.0,2.0,39,0.00,,---,0.00,VWS V14.01,2013-01-15 22:53:00,
2013-01-15 16:58:00,32.9,11.2,30.21,SSW,193,0.0,0.0,40,0.00,,---,0.00,VWS V14.01,2013-01-15 22:58:00,
2013-01-15 17:03:00,33.1,11.4,30.21,SSW,193,0.0,0.0,40,0.00,,---,0.00,VWS V14.01,2013-01-15 23:03:00,
2013-01-15 17:04:00,33.1,11.4,30.21,SSW,193,0.0,0.0,40,0.00,,---,0.00,VWS V14.01,2013-01-15 23:04:00,
2013-01-15 17:08:00,33.1,11.4,30.21,SSW,193,0.0,0.0,40,0.00,,---,0.00,VWS V14.01,2013-01-15 23:08:00,
2013-01-15 17:09:00,33.1,11.4,30.21,SSW,193,0.0,0.0,40,0.00,,---,0.00,VWS V14.01,2013-01-15 23:09:00,
2013-01-15 17:13:00,32.9,12.9,30.21,SSW,193,0.0,0.0,43,0.00,,---,0.00,VWS V14.01,2013-01-15 23:13:00,
2013-01-15 17:14:00,32.9,12.9,30.21,SSW,193,0.0,0.0,43,0.00,,---,0.00,VWS V14.01,2013-01-15 23:14:00,
2013-01-15 17:18:00,32.5,12.0,30.21,SSW,193,0.0,0.0,42,0.00,,---,0.00,VWS V14.01,2013-01-15 23:18:00,
2013-01-15 17:19:00,32.5,11.4,30.21,SSW,193,0.0,0.0,41,0.00,,---,0.00,VWS V14.01,2013-01-15 23:19:00,
2013-01-15 17:20:00,32.5,11.4,30.21,SSW,193,0.0,0.0,41,0.00,,---,0.00,VWS V14.01,2013-01-15 23:20:00,
2013-01-15 17:24:00,32.2,11.2,30.21,SSW,193,0.0,0.0,41,0.00,,---,0.00,VWS V14.01,2013-01-15 23:24:00,
2013-01-15 17:26:00,32.1,11.1,30.21,SSW,193,0.0,0.0,41,0.00,,---,0.00,VWS V14.01,2013-01-15 23:26:00,
2013-01-15 17:29:00,31.9,10.9,30.21,SSW,193,0.0,0.0,41,0.00,,---,0.00,VWS V14.01,2013-01-15 23:29:00,
2013-01-15 17:30:00,31.9,10.9,30.21,SSW,193,0.0,0.0,41,0.00,,---,0.00,VWS V14.01,2013-01-15 23:30:00,
2013-01-15 17:32:00,31.8,10.8,30.21,SSW,193,0.0,0.0,41,0.00,,---,0.00,VWS V14.01,2013-01-15 23:32:00,
2013-01-15 17:34:00,31.6,10.6,30.21,SSW,193,0.0,0.0,41,0.00,,---,0.00,VWS V14.01,2013-01-15 23:34:00,
2013-01-15 17:35:00,31.6,10.6,30.21,SSW,193,0.0,0.0,41,0.00,,---,0.00,VWS V14.01,2013-01-15 23:35:00,
2013-01-15 17:37:00,31.6,10.6,30.21,SSW,193,0.0,0.0,41,0.00,,---,0.00,VWS V14.01,2013-01-15 23:37:00,
2013-01-15 17:39:00,31.5,10.5,30.21,SSW,193,0.0,0.0,41,0.00,,---,0.00,VWS V14.01,2013-01-15 23:39:00,
2013-01-15 17:40:00,31.3,10.3,30.21,SSW,193,0.0,0.0,41,0.00,,---,0.00,VWS V14.01,2013-01-15 23:40:00,
2013-01-15 17:42:00,31.2,10.8,30.21,SSW,193,0.0,0.0,42,0.00,,---,0.00,VWS V14.01,2013-01-15 23:42:00,
2013-01-15 17:45:00,31.0,10.6,30.20,SSW,193,0.0,0.0,42,0.00,,---,0.00,VWS V14.01,2013-01-15 23:45:00,
2013-01-15 17:48:00,30.7,10.3,30.20,SSW,193,0.0,0.0,42,0.00,,---,0.00,VWS V14.01,2013-01-15 23:48:00,
2013-01-15 17:50:00,30.7,10.9,30.20,SSW,193,0.0,0.0,43,0.00,,---,0.00,VWS V14.01,2013-01-15 23:50:00,
2013-01-15 17:53:00,30.6,11.3,30.20,SSW,193,0.0,0.0,44,0.00,,---,0.00,VWS V14.01,2013-01-15 23:53:00,
2013-01-15 17:55:00,30.4,11.6,30.20,SSW,193,0.0,0.0,45,0.00,,---,0.00,VWS V14.01,2013-01-15 23:55:00,
2013-01-15 17:56:00,30.4,11.6,30.20,SSW,193,0.0,0.0,45,0.00,,---,0.00,VWS V14.01,2013-01-15 23:56:00,
2013-01-15 17:58:00,30.1,11.8,30.20,SSW,193,0.0,0.0,46,0.00,,---,0.00,VWS V14.01,2013-01-15 23:58:00,
2013-01-15 18:00:00,30.1,11.8,30.20,SSW,193,0.0,0.0,46,0.00,,---,0.00,VWS V14.01,2013-01-16 00:00:00,
2013-01-15 18:01:00,30.0,11.7,30.20,SSW,193,0.0,0.0,46,0.00,,---,0.00,VWS V14.01,2013-01-16 00:01:00,
2013-01-15 18:03:00,29.8,12.0,30.20,SSW,193,0.0,0.0,47,0.00,,---,0.00,VWS V14.01,2013-01-16 00:03:00,
2013-01-15 18:05:00,29.7,11.9,30.20,SSW,193,0.0,0.0,47,0.00,,---,0.00,VWS V14.01,2013-01-16 00:05:00,
2013-01-15 18:06:00,29.5,11.8,30.20,SSW,193,0.0,0.0,47,0.00,,---,0.00,VWS V14.01,2013-01-16 00:06:00,
2013-01-15 18:09:00,29.4,12.1,30.20,SSW,193,0.0,0.0,48,0.00,,---,0.00,VWS V14.01,2013-01-16 00:09:00,
2013-01-15 18:10:00,29.3,11.6,30.20,SSW,193,0.0,0.0,47,0.00,,---,0.00,VWS V14.01,2013-01-16 00:10:00,
2013-01-15 18:11:00,29.1,11.4,30.20,SSW,193,0.0,0.0,47,0.00,,---,0.00,VWS V14.01,2013-01-16 00:11:00,
2013-01-15 18:14:00,28.8,11.1,30.21,SSW,193,2.0,2.0,47,0.00,,---,0.00,VWS V14.01,2013-01-16 00:14:00,
2013-01-15 18:16:00,28.7,12.0,30.21,SSW,193,0.0,2.0,49,0.00,,---,0.00,VWS V14.01,2013-01-16 00:16:00,
2013-01-15 18:17:00,28.5,11.8,30.21,SSW,193,1.0,2.0,49,0.00,,---,0.00,VWS V14.01,2013-01-16 00:17:00,
2013-01-15 18:19:00,28.4,11.2,30.21,SSW,193,1.0,2.0,48,0.00,,---,0.00,VWS V14.01,2013-01-16 00:19:00,
2013-01-15 18:21:00,28.4,11.2,30.21,SSW,193,1.0,2.0,48,0.00,,---,0.00,VWS V14.01,2013-01-16 00:21:00,
2013-01-15 18:23:00,28.4,11.2,30.21,SSW,193,1.0,2.0,48,0.00,,---,0.00,VWS V14.01,2013-01-16 00:23:00,
2013-01-15 18:24:00,28.4,11.2,30.21,SSW,193,0.0,2.0,48,0.00,,---,0.00,VWS V14.01,2013-01-16 00:24:00,
2013-01-15 18:26:00,28.4,11.2,30.21,SSW,193,0.0,2.0,48,0.00,,---,0.00,VWS V14.01,2013-01-16 00:26:00,
2013-01-15 18:28:00,28.4,11.2,30.21,SSW,193,0.0,2.0,48,0.00,,---,0.00,VWS V14.01,2013-01-16 00:28:00,
2013-01-15 18:29:00,28.2,11.0,30.21,SSW,193,0.0,2.0,48,0.00,,---,0.00,VWS V14.01,2013-01-16 00:29:00,
2013-01-15 18:30:00,28.8,11.1,30.21,SSW,193,2.0,2.0,47,0.00,,---,0.00,VWS V14.01,2013-01-16 00:30:00,
2013-01-15 18:31:00,28.2,11.0,30.21,SSW,193,0.0,2.0,48,0.00,,---,0.00,VWS V14.01,2013-01-16 00:31:00,
2013-01-15 18:32:00,28.2,11.0,30.21,SSW,193,0.0,2.0,48,0.00,,---,0.00,VWS V14.01,2013-01-16 00:32:00,
2013-01-15 18:33:00,28.2,11.0,30.21,SSW,193,0.0,2.0,48,0.00,,---,0.00,VWS V14.01,2013-01-16 00:33:00,
2013-01-15 18:34:00,28.2,11.0,30.21,SSW,193,0.0,2.0,48,0.00,,---,0.00,VWS V14.01,2013-01-16 00:34:00,
2013-01-15 18:36:00,28.1,10.9,30.21,SSW,193,0.0,2.0,48,0.00,,---,0.00,VWS V14.01,2013-01-16 00:36:00,
2013-01-15 18:37:00,28.1,10.9,30.21,SSW,193,0.0,2.0,48,0.00,,---,0.00,VWS V14.01,2013-01-16 00:37:00,
2013-01-15 18:38:00,28.1,10.9,30.21,SSW,193,0.0,2.0,48,0.00,,---,0.00,VWS V14.01,2013-01-16 00:38:00,
2013-01-15 18:39:00,28.1,10.9,30.21,SSW,193,0.0,2.0,48,0.00,,---,0.00,VWS V14.01,2013-01-16 00:39:00,
2013-01-15 18:41:00,27.9,11.2,30.21,SSW,193,0.0,2.0,49,0.00,,---,0.00,VWS V14.01,2013-01-16 00:41:00,
2013-01-15 18:42:00,27.9,11.2,30.21,SSW,193,0.0,2.0,49,0.00,,---,0.00,VWS V14.01,2013-01-16 00:42:00,
2013-01-15 18:43:00,27.9,11.2,30.20,SSW,193,0.0,2.0,49,0.00,,---,0.00,VWS V14.01,2013-01-16 00:43:00,
2013-01-15 18:44:00,27.9,11.2,30.20,SSW,193,0.0,0.0,49,0.00,,---,0.00,VWS V14.01,2013-01-16 00:44:00,
2013-01-15 18:47:00,27.8,11.6,30.20,SSW,193,0.0,0.0,50,0.00,,---,0.00,VWS V14.01,2013-01-16 00:47:00,
2013-01-15 18:49:00,27.8,11.6,30.20,SSW,193,0.0,0.0,50,0.00,,---,0.00,VWS V14.01,2013-01-16 00:49:00,
2013-01-15 18:52:00,27.8,11.1,30.20,SSW,193,0.0,1.0,49,0.00,,---,0.00,VWS V14.01,2013-01-16 00:52:00,
2013-01-15 18:54:00,27.6,11.4,30.20,SSW,193,0.0,1.0,50,0.00,,---,0.00,VWS V14.01,2013-01-16 00:54:00,
2013-01-15 18:55:00,27.6,11.4,30.20,SSW,193,0.0,1.0,50,0.00,,---,0.00,VWS V14.01,2013-01-16 00:55:00,
2013-01-15 18:57:00,27.6,11.4,30.20,SSW,193,0.0,2.0,50,0.00,,---,0.00,VWS V14.01,2013-01-16 00:57:00,
2013-01-15 18:58:00,27.6,11.4,30.21,SSW,193,0.0,2.0,50,0.00,,---,0.00,VWS V14.01,2013-01-16 00:58:00,
2013-01-15 19:00:00,27.6,11.4,30.21,SSW,193,0.0,2.0,50,0.00,,---,0.00,VWS V14.01,2013-01-16 01:00:00,
2013-01-15 19:02:00,27.8,11.6,30.21,SSW,193,0.0,2.0,50,0.00,,---,0.00,VWS V14.01,2013-01-16 01:02:00,
2013-01-15 19:03:00,27.8,11.6,30.21,SSW,193,0.0,2.0,50,0.00,,---,0.00,VWS V14.01,2013-01-16 01:03:00,
2013-01-15 19:05:00,27.8,11.1,30.21,SSW,193,2.0,2.0,49,0.00,,---,0.00,VWS V14.01,2013-01-16 01:05:00,
2013-01-15 19:07:00,27.9,11.2,30.21,SSW,193,1.0,2.0,49,0.00,,---,0.00,VWS V14.01,2013-01-16 01:07:00,
2013-01-15 19:09:00,27.9,11.2,30.21,SSW,193,2.0,2.0,49,0.00,,---,0.00,VWS V14.01,2013-01-16 01:09:00,
2013-01-15 19:10:00,27.9,11.2,30.21,SSW,193,2.0,3.0,49,0.00,,---,0.00,VWS V14.01,2013-01-16 01:10:00,
2013-01-15 19:11:00,27.9,11.2,30.21,SSW,193,2.0,3.0,49,0.00,,---,0.00,VWS V14.01,2013-01-16 01:11:00,
2013-01-15 19:13:00,28.1,10.9,30.21,SSW,193,2.0,3.0,48,0.00,,---,0.00,VWS V14.01,2013-01-16 01:13:00,
2013-01-15 19:14:00,28.1,10.9,30.21,SSW,193,1.0,3.0,48,0.00,,---,0.00,VWS V14.01,2013-01-16 01:14:00,
2013-01-15 19:15:00,28.1,10.9,30.21,SSW,193,1.0,2.0,48,0.00,,---,0.00,VWS V14.01,2013-01-16 01:15:00,
2013-01-15 19:16:00,28.1,10.9,30.21,SSW,193,2.0,2.0,48,0.00,,---,0.00,VWS V14.01,2013-01-16 01:16:00,
2013-01-15 19:18:00,28.1,11.4,30.21,SSW,193,1.0,2.0,49,0.00,,---,0.00,VWS V14.01,2013-01-16 01:18:00,
2013-01-15 19:19:00,28.1,11.4,30.21,SSW,193,2.0,2.0,49,0.00,,---,0.00,VWS V14.01,2013-01-16 01:19:00,
2013-01-15 19:21:00,28.1,11.4,30.21,SSW,193,2.0,3.0,49,0.00,,---,0.00,VWS V14.01,2013-01-16 01:21:00,
2013-01-15 19:23:00,27.9,11.2,30.21,SSW,193,2.0,3.0,49,0.00,,---,0.00,VWS V14.01,2013-01-16 01:23:00,
2013-01-15 19:24:00,27.8,11.1,30.21,SSW,193,2.0,3.0,49,0.00,,---,0.00,VWS V14.01,2013-01-16 01:24:00,
2013-01-15 19:26:00,27.6,11.4,30.21,SSW,193,3.0,3.0,50,0.00,,---,0.00,VWS V14.01,2013-01-16 01:26:00,
2013-01-15 19:27:00,27.6,11.4,30.21,SSW,193,2.0,3.0,50,0.00,,---,0.00,VWS V14.01,2013-01-16 01:27:00,
2013-01-15 19:28:00,27.5,11.8,30.21,SSW,193,2.0,3.0,51,0.00,,---,0.00,VWS V14.01,2013-01-16 01:28:00,
2013-01-15 19:29:00,27.5,11.8,30.21,SSW,193,2.0,3.0,51,0.00,,---,0.00,VWS V14.01,2013-01-16 01:29:00,
2013-01-15 19:30:00,28.1,10.9,30.21,SSW,193,2.0,3.0,48,0.00,,---,0.00,VWS V14.01,2013-01-16 01:30:00,
2013-01-15 19:31:00,27.5,11.3,30.21,SSW,193,2.0,3.0,50,0.00,,---,0.00,VWS V14.01,2013-01-16 01:31:00,
2013-01-15 19:32:00,27.5,10.9,30.21,SSW,193,2.0,3.0,49,0.00,,---,0.00,VWS V14.01,2013-01-16 01:32:00,
2013-01-15 19:33:00,27.5,10.9,30.21,SSW,193,1.0,3.0,49,0.00,,---,0.00,VWS V14.01,2013-01-16 01:33:00,
2013-01-15 19:34:00,27.5,10.9,30.21,SSW,193,2.0,3.0,49,0.00,,---,0.00,VWS V14.01,2013-01-16 01:34:00,
2013-01-15 19:36:00,27.6,10.9,30.21,SSW,193,2.0,3.0,49,0.00,,---,0.00,VWS V14.01,2013-01-16 01:36:00,
2013-01-15 19:37:00,27.6,10.9,30.21,SSW,193,2.0,3.0,49,0.00,,---,0.00,VWS V14.01,2013-01-16 01:37:00,
2013-01-15 19:39:00,27.6,10.9,30.21,SSW,193,2.0,3.0,49,0.00,,---,0.00,VWS V14.01,2013-01-16 01:39:00,
2013-01-15 19:40:00,27.6,10.9,30.21,SSW,193,2.0,3.0,49,0.00,,---,0.00,VWS V14.01,2013-01-16 01:40:00,
2013-01-15 19:41:00,27.6,10.9,30.21,SSW,193,2.0,3.0,49,0.00,,---,0.00,VWS V14.01,2013-01-16 01:41:00,
2013-01-15 19:43:00,27.6,10.9,30.21,SSW,193,3.0,3.0,49,0.00,,---,0.00,VWS V14.01,2013-01-16 01:43:00,
2013-01-15 19:44:00,27.6,10.9,30.21,SSW,192,3.0,3.0,49,0.00,,---,0.00,VWS V14.01,2013-01-16 01:44:00,
2013-01-15 19:45:00,27.6,10.9,30.21,SSW,192,3.0,3.0,49,0.00,,---,0.00,VWS V14.01,2013-01-16 01:45:00,
2013-01-15 19:47:00,27.6,10.9,30.21,SSW,192,2.0,3.0,49,0.00,,---,0.00,VWS V14.01,2013-01-16 01:47:00,
2013-01-15 19:48:00,27.6,10.9,30.21,SSW,192,2.0,3.0,49,0.00,,---,0.00,VWS V14.01,2013-01-16 01:48:00,
2013-01-15 19:49:00,27.6,10.9,30.21,SSW,192,2.0,3.0,49,0.00,,---,0.00,VWS V14.01,2013-01-16 01:49:00,
2013-01-15 19:50:00,27.5,10.9,30.21,South,189,2.0,4.0,49,0.00,,---,0.00,VWS V14.01,2013-01-16 01:50:00,
2013-01-15 19:52:00,27.5,11.3,30.21,South,189,3.0,4.0,50,0.00,,---,0.00,VWS V14.01,2013-01-16 01:52:00,
2013-01-15 19:54:00,27.3,11.1,30.21,South,189,2.0,4.0,50,0.00,,---,0.00,VWS V14.01,2013-01-16 01:54:00,
2013-01-15 19:55:00,27.3,11.6,30.21,South,189,3.0,4.0,51,0.00,,---,0.00,VWS V14.01,2013-01-16 01:55:00,
2013-01-15 19:58:00,27.0,11.3,30.21,South,189,2.0,4.0,51,0.00,,---,0.00,VWS V14.01,2013-01-16 01:58:00,
2013-01-15 19:59:00,27.0,11.3,30.21,South,189,2.0,4.0,51,0.00,,---,0.00,VWS V14.01,2013-01-16 01:59:00,
2013-01-15 20:00:00,26.9,11.2,30.21,South,189,3.0,4.0,51,0.00,,---,0.00,VWS V14.01,2013-01-16 02:00:00,
2013-01-15 20:01:00,26.9,11.6,30.21,South,189,3.0,4.0,52,0.00,,---,0.00,VWS V14.01,2013-01-16 02:01:00,
2013-01-15 20:03:00,26.6,11.8,30.21,South,189,3.0,4.0,53,0.00,,---,0.00,VWS V14.01,2013-01-16 02:03:00,
2013-01-15 20:04:00,26.6,11.8,30.21,South,189,2.0,4.0,53,0.00,,---,0.00,VWS V14.01,2013-01-16 02:04:00,
2013-01-15 20:05:00,26.4,11.6,30.21,South,189,2.0,4.0,53,0.00,,---,0.00,VWS V14.01,2013-01-16 02:05:00,
2013-01-15 20:06:00,26.4,11.6,30.21,South,189,2.0,4.0,53,0.00,,---,0.00,VWS V14.01,2013-01-16 02:06:00,
2013-01-15 20:08:00,26.3,11.9,30.21,South,189,1.0,4.0,54,0.00,,---,0.00,VWS V14.01,2013-01-16 02:08:00,
2013-01-15 20:09:00,26.1,11.7,30.21,South,189,2.0,4.0,54,0.00,,---,0.00,VWS V14.01,2013-01-16 02:09:00,
2013-01-15 20:10:00,26.1,12.2,30.21,South,189,2.0,4.0,55,0.00,,---,0.00,VWS V14.01,2013-01-16 02:10:00,
2013-01-15 20:11:00,26.1,12.2,30.21,South,189,2.0,4.0,55,0.00,,---,0.00,VWS V14.01,2013-01-16 02:11:00,
2013-01-15 20:13:00,26.0,12.1,30.21,South,189,2.0,4.0,55,0.00,,---,0.00,VWS V14.01,2013-01-16 02:13:00,
2013-01-15 20:15:00,25.8,12.3,30.21,South,189,2.0,3.0,56,0.00,,---,0.00,VWS V14.01,2013-01-16 02:15:00,
2013-01-15 20:16:00,25.8,12.3,30.21,South,189,2.0,3.0,56,0.00,,---,0.00,VWS V14.01,2013-01-16 02:16:00,
2013-01-15 20:19:00,25.7,12.6,30.21,South,189,2.0,3.0,57,0.00,,---,0.00,VWS V14.01,2013-01-16 02:19:00,
2013-01-15 20:20:00,25.7,12.6,30.21,South,189,2.0,3.0,57,0.00,,---,0.00,VWS V14.01,2013-01-16 02:20:00,
2013-01-15 20:21:00,25.6,12.5,30.21,South,189,2.0,3.0,57,0.00,,---,0.00,VWS V14.01,2013-01-16 02:21:00,
2013-01-15 20:24:00,25.6,12.9,30.21,South,189,1.0,3.0,58,0.00,,---,0.00,VWS V14.01,2013-01-16 02:24:00,
2013-01-15 20:25:00,25.6,12.9,30.21,South,189,2.0,3.0,58,0.00,,---,0.00,VWS V14.01,2013-01-16 02:25:00,
2013-01-15 20:26:00,25.6,12.9,30.21,South,189,1.0,3.0,58,0.00,,---,0.00,VWS V14.01,2013-01-16 02:26:00,
2013-01-15 20:28:00,25.6,12.9,30.21,South,189,1.0,3.0,58,0.00,,---,0.00,VWS V14.01,2013-01-16 02:28:00,
2013-01-15 20:30:00,25.6,12.9,30.20,South,189,2.0,3.0,58,0.00,,---,0.00,VWS V14.01,2013-01-16 02:30:00,
2013-01-15 20:32:00,25.6,12.9,30.20,South,189,3.0,3.0,58,0.00,,---,0.00,VWS V14.01,2013-01-16 02:32:00,
2013-01-15 20:33:00,25.6,13.3,30.20,South,189,3.0,3.0,59,0.00,,---,0.00,VWS V14.01,2013-01-16 02:33:00,
2013-01-15 20:35:00,25.4,13.1,30.20,South,189,2.0,3.0,59,0.00,,---,0.00,VWS V14.01,2013-01-16 02:35:00,
2013-01-15 20:36:00,25.4,13.1,30.20,South,189,3.0,3.0,59,0.00,,---,0.00,VWS V14.01,2013-01-16 02:36:00,
2013-01-15 20:37:00,25.4,13.1,30.20,South,189,2.0,3.0,59,0.00,,---,0.00,VWS V14.01,2013-01-16 02:37:00,
2013-01-15 20:38:00,25.4,13.1,30.20,South,189,3.0,3.0,59,0.00,,---,0.00,VWS V14.01,2013-01-16 02:38:00,
2013-01-15 20:40:00,25.3,13.0,30.20,South,188,3.0,3.0,59,0.00,,---,0.00,VWS V14.01,2013-01-16 02:40:00,
2013-01-15 20:41:00,25.3,13.0,30.20,South,186,3.0,3.0,59,0.00,,---,0.00,VWS V14.01,2013-01-16 02:41:00,
2013-01-15 20:42:00,25.3,13.0,30.20,South,186,3.0,4.0,59,0.00,,---,0.00,VWS V14.01,2013-01-16 02:42:00,
2013-01-15 20:43:00,25.3,12.6,30.19,South,186,3.0,4.0,58,0.00,,---,0.00,VWS V14.01,2013-01-16 02:43:00,
2013-01-15 20:45:00,25.3,12.6,30.19,South,181,3.0,4.0,58,0.00,,---,0.00,VWS V14.01,2013-01-16 02:45:00,
2013-01-15 20:47:00,25.3,12.2,30.19,South,177,4.0,4.0,57,0.00,,---,0.00,VWS V14.01,2013-01-16 02:47:00,
2013-01-15 20:48:00,25.3,12.2,30.19,South,174,3.0,4.0,57,0.00,,---,0.00,VWS V14.01,2013-01-16 02:48:00,
2013-01-15 20:50:00,25.3,12.2,30.19,South,172,4.0,4.0,57,0.00,,---,0.00,VWS V14.01,2013-01-16 02:50:00,
2013-01-15 20:52:00,25.3,12.2,30.19,South,172,3.0,4.0,57,0.00,,---,0.00,VWS V14.01,2013-01-16 02:52:00,
2013-01-15 20:53:00,25.1,12.0,30.19,South,172,3.0,4.0,57,0.00,,---,0.00,VWS V14.01,2013-01-16 02:53:00,
2013-01-15 20:55:00,25.1,12.0,30.19,South,172,4.0,4.0,57,0.00,,---,0.00,VWS V14.01,2013-01-16 02:55:00,
2013-01-15 20:57:00,25.1,12.0,30.19,South,171,4.0,4.0,57,0.00,,---,0.00,VWS V14.01,2013-01-16 02:57:00,
2013-01-15 20:58:00,25.1,12.0,30.19,South,171,3.0,4.0,57,0.00,,---,0.00,VWS V14.01,2013-01-16 02:58:00,
2013-01-15 21:00:00,25.3,12.6,30.19,South,186,4.0,4.0,58,0.00,,---,0.00,VWS V14.01,2013-01-16 03:00:00,
2013-01-15 21:01:00,25.1,12.0,30.18,South,169,3.0,3.0,57,0.00,,---,0.00,VWS V14.01,2013-01-16 03:01:00,
2013-01-15 21:03:00,25.0,11.9,30.18,South,169,3.0,4.0,57,0.00,,---,0.00,VWS V14.01,2013-01-16 03:03:00,
2013-01-15 21:04:00,25.0,11.5,30.18,South,169,4.0,4.0,56,0.00,,---,0.00,VWS V14.01,2013-01-16 03:04:00,
2013-01-15 21:06:00,25.0,11.5,30.18,South,169,4.0,4.0,56,0.00,,---,0.00,VWS V14.01,2013-01-16 03:06:00,
2013-01-15 21:08:00,25.0,11.5,30.18,SSE,168,3.0,4.0,56,0.00,,---,0.00,VWS V14.01,2013-01-16 03:08:00,
2013-01-15 21:09:00,25.1,11.6,30.18,SSE,168,3.0,4.0,56,0.00,,---,0.00,VWS V14.01,2013-01-16 03:09:00,
2013-01-15 21:11:00,25.0,11.5,30.18,SSE,162,4.0,4.0,56,0.00,,---,0.00,VWS V14.01,2013-01-16 03:11:00,
2013-01-15 21:13:00,25.0,11.5,30.17,SSE,162,3.0,4.0,56,0.00,,---,0.00,VWS V14.01,2013-01-16 03:13:00,
2013-01-15 21:14:00,25.0,11.9,30.17,SSE,162,3.0,4.0,57,0.00,,---,0.00,VWS V14.01,2013-01-16 03:14:00,
2013-01-15 21:16:00,24.7,11.6,30.17,SSE,160,4.0,4.0,57,0.00,,---,0.00,VWS V14.01,2013-01-16 03:16:00,
2013-01-15 21:18:00,24.7,12.0,30.17,SSE,160,4.0,5.0,58,0.00,,---,0.00,VWS V14.01,2013-01-16 03:18:00,
2013-01-15 21:19:00,24.5,11.9,30.17,SSE,160,4.0,5.0,58,0.00,,---,0.00,VWS V14.01,2013-01-16 03:19:00,
2013-01-15 21:21:00,24.5,11.9,30.17,SSE,158,3.0,5.0,58,0.00,,---,0.00,VWS V14.01,2013-01-16 03:21:00,
2013-01-15 21:23:00,24.5,11.9,30.17,SSE,158,4.0,5.0,58,0.00,,---,0.00,VWS V14.01,2013-01-16 03:23:00,
2013-01-15 21:24:00,24.5,11.9,30.17,SSE,158,4.0,5.0,58,0.00,,---,0.00,VWS V14.01,2013-01-16 03:24:00,
2013-01-15 21:25:00,24.5,11.9,30.17,SSE,158,3.0,5.0,58,0.00,,---,0.00,VWS V14.01,2013-01-16 03:25:00,
2013-01-15 21:28:00,24.5,11.9,30.17,SSE,148,4.0,5.0,58,0.00,,---,0.00,VWS V14.01,2013-01-16 03:28:00,
2013-01-15 21:29:00,24.4,12.1,30.16,SSE,148,4.0,5.0,59,0.00,,---,0.00,VWS V14.01,2013-01-16 03:29:00,
2013-01-15 21:30:00,24.4,12.1,30.16,SSE,148,3.0,5.0,59,0.00,,---,0.00,VWS V14.01,2013-01-16 03:30:00,
2013-01-15 21:33:00,24.2,11.9,30.16,SSE,148,3.0,5.0,59,0.00,,---,0.00,VWS V14.01,2013-01-16 03:33:00,
2013-01-15 21:34:00,24.2,11.9,30.16,SSE,148,3.0,5.0,59,0.00,,---,0.00,VWS V14.01,2013-01-16 03:34:00,
2013-01-15 21:35:00,24.1,11.9,30.16,SSE,148,3.0,5.0,59,0.00,,---,0.00,VWS V14.01,2013-01-16 03:35:00,
2013-01-15 21:39:00,24.1,11.9,30.16,SSE,148,3.0,5.0,59,0.00,,---,0.00,VWS V14.01,2013-01-16 03:39:00,
2013-01-15 21:40:00,24.1,11.9,30.16,SSE,148,4.0,5.0,59,0.00,,---,0.00,VWS V14.01,2013-01-16 03:40:00,
2013-01-15 21:44:00,23.9,11.7,30.16,SSE,148,4.0,5.0,59,0.00,,---,0.00,VWS V14.01,2013-01-16 03:44:00,
2013-01-15 21:46:00,23.9,11.7,30.16,SSE,148,3.0,4.0,59,0.00,,---,0.00,VWS V14.01,2013-01-16 03:46:00,
2013-01-15 21:49:00,23.9,12.1,30.16,SSE,148,4.0,4.0,60,0.00,,---,0.00,VWS V14.01,2013-01-16 03:49:00,
2013-01-15 21:50:00,23.8,12.0,30.16,SSE,148,4.0,4.0,60,0.00,,---,0.00,VWS V14.01,2013-01-16 03:50:00,
2013-01-15 21:51:00,23.8,12.0,30.16,SSE,148,4.0,4.0,60,0.00,,---,0.00,VWS V14.01,2013-01-16 03:51:00,
2013-01-15 21:54:00,23.5,12.0,30.16,SSE,147,4.0,5.0,61,0.00,,---,0.00,VWS V14.01,2013-01-16 03:54:00,
2013-01-15 21:55:00,23.5,12.0,30.16,SSE,147,4.0,5.0,61,0.00,,---,0.00,VWS V14.01,2013-01-16 03:55:00,
2013-01-15 21:56:00,23.5,12.0,30.16,SSE,147,4.0,5.0,61,0.00,,---,0.00,VWS V14.01,2013-01-16 03:56:00,
2013-01-15 21:59:00,23.2,11.8,30.15,SSE,147,3.0,5.0,61,0.00,,---,0.00,VWS V14.01,2013-01-16 03:59:00,
2013-01-15 22:00:00,23.2,11.8,30.15,SSE,147,4.0,5.0,61,0.00,,---,0.00,VWS V14.01,2013-01-16 04:00:00,
2013-01-15 22:01:00,23.2,11.8,30.15,SSE,147,3.0,5.0,61,0.00,,---,0.00,VWS V14.01,2013-01-16 04:01:00,
2013-01-15 22:04:00,23.2,11.8,30.15,SSE,147,4.0,5.0,61,0.00,,---,0.00,VWS V14.01,2013-01-16 04:04:00,
2013-01-15 22:05:00,23.2,11.8,30.15,SSE,147,3.0,5.0,61,0.00,,---,0.00,VWS V14.01,2013-01-16 04:05:00,
2013-01-15 22:06:00,23.2,11.8,30.15,SSE,147,4.0,5.0,61,0.00,,---,0.00,VWS V14.01,2013-01-16 04:06:00,
2013-01-15 22:07:00,23.0,11.6,30.15,SSE,147,4.0,5.0,61,0.00,,---,0.00,VWS V14.01,2013-01-16 04:07:00,
2013-01-15 22:09:00,23.0,11.6,30.15,SSE,155,4.0,5.0,61,0.00,,---,0.00,VWS V14.01,2013-01-16 04:09:00,
2013-01-15 22:10:00,23.0,11.6,30.15,SSE,155,5.0,6.0,61,0.00,,---,0.00,VWS V14.01,2013-01-16 04:10:00,
2013-01-15 22:11:00,23.0,11.6,30.15,SSE,155,4.0,6.0,61,0.00,,---,0.00,VWS V14.01,2013-01-16 04:11:00,
2013-01-15 22:12:00,23.0,11.6,30.15,SSE,152,4.0,6.0,61,0.00,,---,0.00,VWS V14.01,2013-01-16 04:12:00,
2013-01-15 22:14:00,23.0,11.6,30.15,SSE,155,5.0,5.0,61,0.00,,---,0.00,VWS V14.01,2013-01-16 04:14:00,
2013-01-15 22:15:00,22.9,11.5,30.15,SSE,155,4.0,5.0,61,0.00,,---,0.00,VWS V14.01,2013-01-16 04:15:00,
2013-01-15 22:16:00,22.9,11.5,30.15,SSE,155,4.0,5.0,61,0.00,,---,0.00,VWS V14.01,2013-01-16 04:16:00,
2013-01-15 22:17:00,22.9,11.5,30.15,SSE,156,3.0,6.0,61,0.00,,---,0.00,VWS V14.01,2013-01-16 04:17:00,
2013-01-15 22:20:00,22.9,11.5,30.15,SSE,158,4.0,6.0,61,0.00,,---,0.00,VWS V14.01,2013-01-16 04:20:00,
2013-01-15 22:21:00,22.9,11.5,30.15,SSE,158,4.0,6.0,61,0.00,,---,0.00,VWS V14.01,2013-01-16 04:21:00,
2013-01-15 22:22:00,22.9,11.5,30.15,SSE,158,3.0,6.0,61,0.00,,---,0.00,VWS V14.01,2013-01-16 04:22:00,
2013-01-15 22:25:00,22.9,11.5,30.15,SSE,158,3.0,6.0,61,0.00,,---,0.00,VWS V14.01,2013-01-16 04:25:00,
2013-01-15 22:26:00,22.9,11.5,30.15,SSE,158,3.0,6.0,61,0.00,,---,0.00,VWS V14.01,2013-01-16 04:26:00,
2013-01-15 22:27:00,22.7,11.3,30.15,SSE,158,2.0,6.0,61,0.00,,---,0.00,VWS V14.01,2013-01-16 04:27:00,
2013-01-15 22:30:00,22.7,11.3,30.15,SSE,158,3.0,6.0,61,0.00,,---,0.00,VWS V14.01,2013-01-16 04:30:00,
2013-01-15 22:31:00,22.7,11.3,30.15,SSE,158,3.0,6.0,61,0.00,,---,0.00,VWS V14.01,2013-01-16 04:31:00,
2013-01-15 22:32:00,22.7,11.3,30.15,SSE,158,2.0,6.0,61,0.00,,---,0.00,VWS V14.01,2013-01-16 04:32:00,
2013-01-15 22:35:00,22.7,11.3,30.15,SSE,158,3.0,6.0,61,0.00,,---,0.00,VWS V14.01,2013-01-16 04:35:00,
2013-01-15 22:36:00,22.7,11.3,30.15,SSE,158,4.0,6.0,61,0.00,,---,0.00,VWS V14.01,2013-01-16 04:36:00,
2013-01-15 22:38:00,22.7,11.3,30.15,SSE,158,3.0,6.0,61,0.00,,---,0.00,VWS V14.01,2013-01-16 04:38:00,
2013-01-15 22:41:00,22.5,11.5,30.15,SSE,158,4.0,6.0,62,0.00,,---,0.00,VWS V14.01,2013-01-16 04:41:00,
2013-01-15 22:42:00,22.5,11.5,30.15,SSE,158,4.0,6.0,62,0.00,,---,0.00,VWS V14.01,2013-01-16 04:42:00,
2013-01-15 22:43:00,22.5,11.5,30.15,SSE,158,3.0,6.0,62,0.00,,---,0.00,VWS V14.01,2013-01-16 04:43:00,
2013-01-15 22:46:00,22.5,11.5,30.15,SSE,158,3.0,4.0,62,0.00,,---,0.00,VWS V14.01,2013-01-16 04:46:00,
2013-01-15 22:48:00,22.5,11.5,30.15,SSE,158,3.0,4.0,62,0.00,,---,0.00,VWS V14.01,2013-01-16 04:48:00,
2013-01-15 22:51:00,22.7,11.3,30.15,SSE,160,3.0,4.0,61,0.00,,---,0.00,VWS V14.01,2013-01-16 04:51:00,
2013-01-15 22:52:00,22.7,11.3,30.15,SSE,160,3.0,4.0,61,0.00,,---,0.00,VWS V14.01,2013-01-16 04:52:00,
2013-01-15 22:53:00,22.7,11.3,30.15,SSE,160,3.0,4.0,61,0.00,,---,0.00,VWS V14.01,2013-01-16 04:53:00,
2013-01-15 22:56:00,22.7,11.3,30.15,SSE,160,2.0,4.0,61,0.00,,---,0.00,VWS V14.01,2013-01-16 04:56:00,
2013-01-15 22:57:00,22.7,11.3,30.15,SSE,160,3.0,4.0,61,0.00,,---,0.00,VWS V14.01,2013-01-16 04:57:00,
2013-01-15 22:58:00,22.7,11.3,30.15,SSE,160,3.0,4.0,61,0.00,,---,0.00,VWS V14.01,2013-01-16 04:58:00,
2013-01-15 22:59:00,22.7,11.3,30.15,SSE,160,4.0,4.0,61,0.00,,---,0.00,VWS V14.01,2013-01-16 04:59:00,
2013-01-15 23:00:00,22.7,11.3,30.15,SSE,160,3.0,4.0,61,0.00,,---,0.00,VWS V14.01,2013-01-16 05:00:00,
2013-01-15 23:03:00,22.7,11.3,30.15,SSE,160,3.0,5.0,61,0.00,,---,0.00,VWS V14.01,2013-01-16 05:03:00,
2013-01-15 23:05:00,22.7,11.3,30.15,SSE,160,4.0,5.0,61,0.00,,---,0.00,VWS V14.01,2013-01-16 05:05:00,
2013-01-15 23:07:00,22.7,11.3,30.15,SSE,160,4.0,5.0,61,0.00,,---,0.00,VWS V14.01,2013-01-16 05:07:00,
2013-01-15 23:08:00,22.7,11.3,30.15,SSE,160,4.0,5.0,61,0.00,,---,0.00,VWS V14.01,2013-01-16 05:08:00,
2013-01-15 23:11:00,22.5,11.1,30.15,SSE,160,3.0,5.0,61,0.00,,---,0.00,VWS V14.01,2013-01-16 05:11:00,
2013-01-15 23:12:00,22.5,11.1,30.15,SSE,160,4.0,5.0,61,0.00,,---,0.00,VWS V14.01,2013-01-16 05:12:00,
2013-01-15 23:30:00,22.5,11.1,30.15,SSE,158,3.0,5.0,61,0.00,,---,0.00,VWS V14.01,2013-01-16 05:30:00,